Wetterdaten: aktuell Freitag, 15.11.2019 05:43
Datum Zeit Temp. I. Temp 2m Temp 5cm Temp -10cm Feuchte I. Luftf 2m Luftdruck Regen Wind Richtung Richtung Sonnenschein ET UV Solar Taupunkt Windchill Windben Empfang
15.11.2019 05:43 21,8 C 6,5 C 5,6 C 6,1 C 61 % 85 % 1001,5 hPa 0,0 l/m 6,4 km/h (2 Bft) O 90 0 min 0,000 mm 0,0 UV-I 0 W/m 4,2 C 6,5 C 9,7 km/h (2 Bft) 100,00 %
15.11.2019 05:42 21,8 C 6,5 C 5,6 C 6,1 C 61 % 85 % 1001,5 hPa 0,0 l/m 6,4 km/h (2 Bft) O-NO 67 0 min 0,000 mm 0,0 UV-I 0 W/m 4,2 C 6,5 C 11,3 km/h (2 Bft) 91,30 %
15.11.2019 05:41 21,8 C 6,5 C 5,6 C 6,1 C 61 % 85 % 1001,5 hPa 0,0 l/m 8,0 km/h (2 Bft) O-NO 67 0 min 0,000 mm 0,0 UV-I 0 W/m 4,2 C 5,2 C 12,9 km/h (3 Bft) 91,30 %
15.11.2019 05:40 21,8 C 6,5 C 5,6 C 6,1 C 61 % 85 % 1001,5 hPa 0,0 l/m 8,0 km/h (2 Bft) O-NO 67 0 min 0,000 mm 0,0 UV-I 0 W/m 4,2 C 5,2 C 11,3 km/h (2 Bft) 91,30 %
15.11.2019 05:39 21,8 C 6,5 C 5,6 C 6,1 C 61 % 85 % 1001,5 hPa 0,0 l/m 8,0 km/h (2 Bft) NO 45 0 min 0,000 mm 0,0 UV-I 0 W/m 4,2 C 5,2 C 14,5 km/h (3 Bft) 95,65 %
15.11.2019 05:38 21,8 C 6,5 C 5,6 C 6,1 C 61 % 85 % 1001,5 hPa 0,0 l/m 8,0 km/h (2 Bft) O 90 0 min 0,000 mm 0,0 UV-I 0 W/m 4,2 C 5,2 C 12,9 km/h (3 Bft) 91,30 %
15.11.2019 05:37 21,8 C 6,6 C 5,6 C 6,1 C 61 % 85 % 1001,5 hPa 0,0 l/m 8,0 km/h (2 Bft) NO 45 0 min 0,000 mm 0,0 UV-I 0 W/m 4,3 C 5,3 C 16,1 km/h (3 Bft) 100,00 %
15.11.2019 05:36 21,8 C 6,6 C 5,6 C 6,1 C 61 % 85 % 1001,5 hPa 0,0 l/m 9,7 km/h (2 Bft) NO 45 0 min 0,000 mm 0,0 UV-I 0 W/m 4,3 C 4,0 C 19,3 km/h (3 Bft) 95,65 %
15.11.2019 05:35 21,8 C 6,6 C 5,6 C 6,1 C 61 % 85 % 1001,5 hPa 0,0 l/m 8,0 km/h (2 Bft) O-NO 67 0 min 0,000 mm 0,0 UV-I 0 W/m 4,3 C 5,3 C 11,3 km/h (2 Bft) 95,65 %
15.11.2019 05:34 21,8 C 6,6 C 5,6 C 6,1 C 61 % 84 % 1001,5 hPa 0,0 l/m 6,4 km/h (2 Bft) O-NO 67 0 min 0,000 mm 0,0 UV-I 0 W/m 4,1 C 6,6 C 12,9 km/h (3 Bft) 95,65 %
15.11.2019 05:33 21,8 C 6,6 C 5,6 C 6,1 C 61 % 85 % 1001,5 hPa 0,0 l/m 4,8 km/h (1 Bft) O-NO 67 0 min 0,000 mm 0,0 UV-I 0 W/m 4,3 C 6,6 C 6,4 km/h (2 Bft) 95,65 %
15.11.2019 05:32 21,8 C 6,6 C 5,6 C 6,1 C 61 % 84 % 1001,5 hPa 0,0 l/m 4,8 km/h (1 Bft) O-NO 67 0 min 0,000 mm 0,0 UV-I 0 W/m 4,1 C 6,6 C 8,0 km/h (2 Bft) 95,65 %
15.11.2019 05:31 21,8 C 6,6 C 5,6 C 6,1 C 61 % 84 % 1001,5 hPa 0,0 l/m 6,4 km/h (2 Bft) O-NO 67 0 min 0,000 mm 0,0 UV-I 0 W/m 4,1 C 6,6 C 11,3 km/h (2 Bft) 100,00 %
15.11.2019 05:30 21,8 C 6,6 C 5,6 C 6,1 C 61 % 84 % 1001,5 hPa 0,0 l/m 6,4 km/h (2 Bft) O-NO 67 0 min 0,000 mm 0,0 UV-I 0 W/m 4,1 C 6,6 C 11,3 km/h (2 Bft) 91,30 %
15.11.2019 05:29 21,8 C 6,6 C 5,6 C 6,1 C 61 % 84 % 1001,4 hPa 0,0 l/m 8,0 km/h (2 Bft) O-NO 67 0 min 0,000 mm 0,0 UV-I 0 W/m 4,1 C 5,3 C 11,3 km/h (2 Bft) 91,30 %
15.11.2019 05:28 21,8 C 6,6 C 5,6 C 6,1 C 61 % 84 % 1001,4 hPa 0,0 l/m 6,4 km/h (2 Bft) NO 45 0 min 0,000 mm 0,0 UV-I 0 W/m 4,1 C 6,6 C 11,3 km/h (2 Bft) 100,00 %
15.11.2019 05:27 21,8 C 6,6 C 5,6 C 6,1 C 61 % 84 % 1001,4 hPa 0,0 l/m 9,7 km/h (2 Bft) O-NO 67 0 min 0,000 mm 0,0 UV-I 0 W/m 4,1 C 4,0 C 16,1 km/h (3 Bft) 91,30 %
15.11.2019 05:26 21,8 C 6,7 C 5,6 C 6,1 C 61 % 84 % 1001,4 hPa 0,0 l/m 6,4 km/h (2 Bft) O-NO 67 0 min 0,000 mm 0,0 UV-I 0 W/m 4,2 C 6,7 C 14,5 km/h (3 Bft) 95,65 %
15.11.2019 05:25 21,8 C 6,7 C 5,6 C 6,1 C 61 % 84 % 1001,4 hPa 0,0 l/m 8,0 km/h (2 Bft) O-NO 67 0 min 0,000 mm 0,0 UV-I 0 W/m 4,2 C 5,4 C 14,5 km/h (3 Bft) 100,00 %
15.11.2019 05:24 21,8 C 6,7 C 5,0 C 6,1 C 61 % 84 % 1001,4 hPa 0,0 l/m 8,0 km/h (2 Bft) NO 45 0 min 0,000 mm 0,0 UV-I 0 W/m 4,2 C 5,4 C 11,3 km/h (2 Bft) 95,65 %
15.11.2019 05:23 21,8 C 6,7 C 5,6 C 6,1 C 61 % 84 % 1001,4 hPa 0,0 l/m 3,2 km/h (1 Bft) O-NO 67 0 min 0,000 mm 0,0 UV-I 0 W/m 4,2 C 6,7 C 4,8 km/h (1 Bft) 95,65 %
15.11.2019 05:22 21,8 C 6,7 C 5,6 C 6,1 C 61 % 84 % 1001,4 hPa 0,0 l/m 4,8 km/h (1 Bft) O-NO 67 0 min 0,000 mm 0,0 UV-I 0 W/m 4,2 C 6,7 C 8,0 km/h (2 Bft) 95,65 %
15.11.2019 05:21 21,8 C 6,7 C 5,6 C 6,1 C 61 % 84 % 1001,4 hPa 0,0 l/m 6,4 km/h (2 Bft) NO 45 0 min 0,000 mm 0,0 UV-I 0 W/m 4,2 C 6,7 C 11,3 km/h (2 Bft) 91,30 %
15.11.2019 05:20 21,8 C 6,7 C 5,6 C 6,1 C 61 % 84 % 1001,4 hPa 0,0 l/m 6,4 km/h (2 Bft) O-NO 67 0 min 0,000 mm 0,0 UV-I 0 W/m 4,2 C 6,7 C 11,3 km/h (2 Bft) 95,65 %
15.11.2019 05:19 21,8 C 6,7 C 5,6 C 6,1 C 61 % 83 % 1001,4 hPa 0,0 l/m 6,4 km/h (2 Bft) NO 45 0 min 0,000 mm 0,0 UV-I 0 W/m 4,0 C 6,7 C 14,5 km/h (3 Bft) 100,00 %
15.11.2019 05:18 21,8 C 6,7 C 5,6 C 6,1 C 61 % 83 % 1001,4 hPa 0,0 l/m 4,8 km/h (1 Bft) O-NO 67 0 min 0,000 mm 0,0 UV-I 0 W/m 4,0 C 6,7 C 8,0 km/h (2 Bft) 91,30 %
15.11.2019 05:17 21,8 C 6,7 C 5,6 C 6,1 C 61 % 83 % 1001,4 hPa 0,0 l/m 6,4 km/h (2 Bft) O-NO 67 0 min 0,000 mm 0,0 UV-I 0 W/m 4,0 C 6,7 C 11,3 km/h (2 Bft) 91,30 %
15.11.2019 05:16 21,8 C 6,7 C 5,6 C 6,1 C 61 % 83 % 1001,4 hPa 0,0 l/m 6,4 km/h (2 Bft) O 90 0 min 0,000 mm 0,0 UV-I 0 W/m 4,0 C 6,7 C 11,3 km/h (2 Bft) 86,96 %
15.11.2019 05:15 21,8 C 6,7 C 5,6 C 6,1 C 61 % 83 % 1001,4 hPa 0,0 l/m 8,0 km/h (2 Bft) O 90 0 min 0,000 mm 0,0 UV-I 0 W/m 4,0 C 5,4 C 11,3 km/h (2 Bft) 95,65 %
15.11.2019 05:14 21,8 C 6,7 C 5,6 C 6,1 C 61 % 83 % 1001,9 hPa 0,0 l/m 9,7 km/h (2 Bft) O-NO 67 0 min 0,000 mm 0,0 UV-I 0 W/m 4,0 C 4,2 C 16,1 km/h (3 Bft) 91,30 %
15.11.2019 05:13 21,8 C 6,7 C 5,6 C 6,1 C 61 % 83 % 1001,9 hPa 0,0 l/m 11,3 km/h (2 Bft) O-NO 67 0 min 0,000 mm 0,0 UV-I 0 W/m 4,0 C 3,1 C 19,3 km/h (3 Bft) 91,30 %
15.11.2019 05:12 21,8 C 6,7 C 6,1 C 6,1 C 61 % 83 % 1001,9 hPa 0,0 l/m 9,7 km/h (2 Bft) O-NO 67 0 min 0,000 mm 0,0 UV-I 0 W/m 4,0 C 4,2 C 12,9 km/h (3 Bft) 95,65 %
15.11.2019 05:11 21,8 C 6,7 C 5,6 C 6,1 C 61 % 83 % 1001,9 hPa 0,0 l/m 8,0 km/h (2 Bft) O-NO 67 0 min 0,000 mm 0,0 UV-I 0 W/m 4,0 C 5,4 C 12,9 km/h (3 Bft) 91,30 %
15.11.2019 05:10 21,8 C 6,7 C 5,6 C 6,1 C 61 % 83 % 1001,9 hPa 0,0 l/m 12,9 km/h (3 Bft) O-NO 67 0 min 0,000 mm 0,0 UV-I 0 W/m 4,0 C 2,2 C 19,3 km/h (3 Bft) 100,00 %
15.11.2019 05:09 21,8 C 6,7 C 5,6 C 6,1 C 61 % 83 % 1001,9 hPa 0,0 l/m 8,0 km/h (2 Bft) O-NO 67 0 min 0,000 mm 0,0 UV-I 0 W/m 4,0 C 5,4 C 14,5 km/h (3 Bft) 91,30 %
15.11.2019 05:08 21,8 C 6,7 C 6,1 C 6,1 C 61 % 83 % 1001,9 hPa 0,0 l/m 9,7 km/h (2 Bft) O 90 0 min 0,000 mm 0,0 UV-I 0 W/m 4,0 C 4,2 C 12,9 km/h (3 Bft) 95,65 %
15.11.2019 05:07 21,8 C 6,7 C 6,1 C 6,1 C 61 % 83 % 1001,9 hPa 0,0 l/m 12,9 km/h (3 Bft) O-NO 67 0 min 0,000 mm 0,0 UV-I 0 W/m 4,0 C 2,2 C 19,3 km/h (3 Bft) 95,65 %
15.11.2019 05:06 21,8 C 6,7 C 6,1 C 6,1 C 61 % 83 % 1001,9 hPa 0,0 l/m 8,0 km/h (2 Bft) O-NO 67 0 min 0,000 mm 0,0 UV-I 0 W/m 4,0 C 5,4 C 11,3 km/h (2 Bft) 91,30 %
15.11.2019 05:05 21,8 C 6,7 C 6,1 C 6,1 C 61 % 83 % 1001,9 hPa 0,0 l/m 8,0 km/h (2 Bft) O-NO 67 0 min 0,000 mm 0,0 UV-I 0 W/m 4,0 C 5,4 C 14,5 km/h (3 Bft) 91,30 %
15.11.2019 05:04 21,8 C 6,7 C 6,1 C 6,1 C 61 % 84 % 1001,9 hPa 0,0 l/m 12,9 km/h (3 Bft) O 90 0 min 0,000 mm 0,0 UV-I 0 W/m 4,2 C 2,2 C 19,3 km/h (3 Bft) 91,30 %
15.11.2019 05:03 21,8 C 6,7 C 5,6 C 6,1 C 61 % 84 % 1001,9 hPa 0,0 l/m 14,5 km/h (3 Bft) O 90 0 min 0,000 mm 0,0 UV-I 0 W/m 4,2 C 1,4 C 22,5 km/h (4 Bft) 91,30 %
15.11.2019 05:02 21,8 C 6,7 C 5,6 C 6,1 C 61 % 84 % 1001,9 hPa 0,0 l/m 11,3 km/h (2 Bft) O 90 0 min 0,000 mm 0,0 UV-I 0 W/m 4,2 C 3,1 C 17,7 km/h (3 Bft) 91,30 %
15.11.2019 05:01 21,8 C 6,7 C 5,6 C 6,1 C 61 % 84 % 1001,9 hPa 0,0 l/m 6,4 km/h (2 Bft) O-SO 112 0 min 0,000 mm 0,0 UV-I 0 W/m 4,2 C 6,7 C 12,9 km/h (3 Bft) 95,65 %
15.11.2019 05:00 21,8 C 6,7 C 5,6 C 6,1 C 61 % 84 % 1001,9 hPa 0,0 l/m 11,3 km/h (2 Bft) O-NO 67 0 min 0,025 mm 0,0 UV-I 0 W/m 4,2 C 3,1 C 17,7 km/h (3 Bft) 95,65 %
15.11.2019 04:59 21,8 C 6,7 C 5,6 C 6,1 C 61 % 84 % 1002,0 hPa 0,0 l/m 11,3 km/h (2 Bft) O-NO 67 0 min 0,000 mm 0,0 UV-I 0 W/m 4,2 C 3,1 C 22,5 km/h (4 Bft) 95,65 %
15.11.2019 04:58 21,8 C 6,6 C 5,6 C 6,1 C 61 % 84 % 1002,0 hPa 0,0 l/m 9,7 km/h (2 Bft) O-NO 67 0 min 0,000 mm 0,0 UV-I 0 W/m 4,1 C 4,0 C 14,5 km/h (3 Bft) 91,30 %
15.11.2019 04:57 21,8 C 6,6 C 5,6 C 6,1 C 61 % 84 % 1002,0 hPa 0,0 l/m 8,0 km/h (2 Bft) O-NO 67 0 min 0,000 mm 0,0 UV-I 0 W/m 4,1 C 5,3 C 11,3 km/h (2 Bft) 95,65 %
15.11.2019 04:56 21,8 C 6,6 C 5,6 C 6,1 C 61 % 84 % 1002,0 hPa 0,0 l/m 12,9 km/h (3 Bft) O-NO 67 0 min 0,000 mm 0,0 UV-I 0 W/m 4,1 C 2,1 C 22,5 km/h (4 Bft) 86,96 %
15.11.2019 04:55 21,8 C 6,6 C 6,1 C 6,1 C 62 % 84 % 1002,0 hPa 0,0 l/m 12,9 km/h (3 Bft) O-NO 67 0 min 0,000 mm 0,0 UV-I 0 W/m 4,1 C 2,1 C 27,4 km/h (4 Bft) 95,65 %
15.11.2019 04:54 21,8 C 6,5 C 6,1 C 6,1 C 61 % 84 % 1002,0 hPa 0,0 l/m 16,1 km/h (3 Bft) O-NO 67 0 min 0,000 mm 0,0 UV-I 0 W/m 4,0 C 0,4 C 27,4 km/h (4 Bft) 91,30 %
15.11.2019 04:53 21,8 C 6,5 C 6,1 C 6,1 C 61 % 85 % 1002,0 hPa 0,0 l/m 11,3 km/h (2 Bft) O-NO 67 0 min 0,000 mm 0,0 UV-I 0 W/m 4,2 C 2,9 C 19,3 km/h (3 Bft) 95,65 %
15.11.2019 04:52 21,8 C 6,4 C 6,1 C 6,1 C 61 % 85 % 1002,0 hPa 0,0 l/m 12,9 km/h (3 Bft) O-NO 67 0 min 0,000 mm 0,0 UV-I 0 W/m 4,1 C 1,9 C 22,5 km/h (4 Bft) 95,65 %
15.11.2019 04:51 21,8 C 6,4 C 5,6 C 6,1 C 61 % 85 % 1002,0 hPa 0,0 l/m 14,5 km/h (3 Bft) O 90 0 min 0,000 mm 0,0 UV-I 0 W/m 4,1 C 1,0 C 24,1 km/h (4 Bft) 100,00 %
15.11.2019 04:50 21,8 C 6,3 C 5,6 C 6,1 C 62 % 85 % 1002,0 hPa 0,0 l/m 11,3 km/h (2 Bft) O-NO 67 0 min 0,000 mm 0,0 UV-I 0 W/m 4,0 C 2,7 C 20,9 km/h (4 Bft) 95,65 %
15.11.2019 04:49 21,8 C 6,3 C 5,6 C 6,1 C 61 % 85 % 1002,0 hPa 0,0 l/m 9,7 km/h (2 Bft) O-NO 67 0 min 0,000 mm 0,0 UV-I 0 W/m 4,0 C 3,7 C 14,5 km/h (3 Bft) 82,61 %
15.11.2019 04:48 21,8 C 6,2 C 5,6 C 6,1 C 61 % 85 % 1002,0 hPa 0,0 l/m 9,7 km/h (2 Bft) O-NO 67 0 min 0,000 mm 0,0 UV-I 0 W/m 3,9 C 3,6 C 17,7 km/h (3 Bft) 100,00 %
15.11.2019 04:47 21,8 C 6,2 C 5,6 C 6,1 C 61 % 86 % 1002,0 hPa 0,0 l/m 12,9 km/h (3 Bft) O-NO 67 0 min 0,000 mm 0,0 UV-I 0 W/m 4,0 C 1,6 C 19,3 km/h (3 Bft) 95,65 %
15.11.2019 04:46 21,8 C 6,1 C 5,6 C 6,1 C 61 % 86 % 1002,0 hPa 0,0 l/m 8,0 km/h (2 Bft) O 90 0 min 0,000 mm 0,0 UV-I 0 W/m 3,9 C 4,8 C 24,1 km/h (4 Bft) 95,65 %
15.11.2019 04:45 21,8 C 6,0 C 5,0 C 6,1 C 61 % 86 % 1002,0 hPa 0,0 l/m 14,5 km/h (3 Bft) O-NO 67 0 min 0,000 mm 0,0 UV-I 0 W/m 3,8 C 0,5 C 22,5 km/h (4 Bft) 100,00 %
15.11.2019 04:44 21,8 C 5,9 C 5,0 C 6,1 C 61 % 86 % 1002,3 hPa 0,0 l/m 14,5 km/h (3 Bft) O-NO 67 0 min 0,000 mm 0,0 UV-I 0 W/m 3,7 C 0,4 C 22,5 km/h (4 Bft) 91,30 %
15.11.2019 04:43 21,8 C 5,9 C 5,0 C 6,1 C 61 % 86 % 1002,3 hPa 0,0 l/m 9,7 km/h (2 Bft) O-NO 67 0 min 0,000 mm 0,0 UV-I 0 W/m 3,7 C 3,3 C 17,7 km/h (3 Bft) 91,30 %
15.11.2019 04:42 21,8 C 5,9 C 5,0 C 6,1 C 61 % 86 % 1002,3 hPa 0,0 l/m 11,3 km/h (2 Bft) O-NO 67 0 min 0,000 mm 0,0 UV-I 0 W/m 3,7 C 2,2 C 16,1 km/h (3 Bft) 100,00 %
15.11.2019 04:41 21,8 C 5,8 C 5,0 C 6,1 C 61 % 87 % 1002,3 hPa 0,0 l/m 8,0 km/h (2 Bft) O-NO 67 0 min 0,000 mm 0,0 UV-I 0 W/m 3,8 C 4,4 C 12,9 km/h (3 Bft) 91,30 %
15.11.2019 04:40 21,8 C 5,7 C 5,0 C 6,1 C 61 % 87 % 1002,3 hPa 0,0 l/m 9,7 km/h (2 Bft) O 90 0 min 0,000 mm 0,0 UV-I 0 W/m 3,7 C 3,1 C 20,9 km/h (4 Bft) 86,96 %
15.11.2019 04:39 21,8 C 5,7 C 4,4 C 6,1 C 61 % 87 % 1002,3 hPa 0,0 l/m 11,3 km/h (2 Bft) O 90 0 min 0,000 mm 0,0 UV-I 0 W/m 3,7 C 2,0 C 17,7 km/h (3 Bft) 100,00 %
15.11.2019 04:38 21,8 C 5,7 C 4,4 C 6,1 C 61 % 87 % 1002,3 hPa 0,0 l/m 6,4 km/h (2 Bft) O-NO 67 0 min 0,000 mm 0,0 UV-I 0 W/m 3,7 C 5,7 C 9,7 km/h (2 Bft) 95,65 %
15.11.2019 04:37 21,8 C 5,7 C 3,9 C 6,1 C 61 % 87 % 1002,3 hPa 0,0 l/m 6,4 km/h (2 Bft) O-SO 112 0 min 0,000 mm 0,0 UV-I 0 W/m 3,7 C 5,7 C 9,7 km/h (2 Bft) 95,65 %
15.11.2019 04:36 21,8 C 5,6 C 3,9 C 6,1 C 61 % 87 % 1002,3 hPa 0,0 l/m 8,0 km/h (2 Bft) O 90 0 min 0,000 mm 0,0 UV-I 0 W/m 3,6 C 4,2 C 12,9 km/h (3 Bft) 100,00 %
15.11.2019 04:35 21,8 C 5,6 C 3,9 C 6,1 C 61 % 87 % 1002,3 hPa 0,0 l/m 11,3 km/h (2 Bft) O-NO 67 0 min 0,000 mm 0,0 UV-I 0 W/m 3,6 C 1,9 C 14,5 km/h (3 Bft) 91,30 %
15.11.2019 04:34 21,8 C 5,6 C 3,9 C 6,1 C 61 % 87 % 1002,3 hPa 0,0 l/m 6,4 km/h (2 Bft) O-NO 67 0 min 0,000 mm 0,0 UV-I 0 W/m 3,6 C 5,6 C 16,1 km/h (3 Bft) 95,65 %
15.11.2019 04:33 21,8 C 5,6 C 3,9 C 6,1 C 61 % 87 % 1002,3 hPa 0,0 l/m 4,8 km/h (1 Bft) O-NO 67 0 min 0,000 mm 0,0 UV-I 0 W/m 3,6 C 5,6 C 8,0 km/h (2 Bft) 91,30 %
15.11.2019 04:32 21,8 C 5,6 C 3,9 C 6,1 C 61 % 87 % 1002,3 hPa 0,0 l/m 6,4 km/h (2 Bft) O-NO 67 0 min 0,000 mm 0,0 UV-I 0 W/m 3,6 C 5,6 C 8,0 km/h (2 Bft) 95,65 %
15.11.2019 04:31 21,8 C 5,6 C 3,9 C 6,1 C 61 % 87 % 1002,3 hPa 0,0 l/m 8,0 km/h (2 Bft) O 90 0 min 0,000 mm 0,0 UV-I 0 W/m 3,6 C 4,2 C 11,3 km/h (2 Bft) 95,65 %
15.11.2019 04:30 21,8 C 5,6 C 3,9 C 6,1 C 61 % 87 % 1002,3 hPa 0,0 l/m 3,2 km/h (1 Bft) O 90 0 min 0,000 mm 0,0 UV-I 0 W/m 3,6 C 5,6 C 6,4 km/h (2 Bft) 95,65 %
15.11.2019 04:29 21,8 C 5,6 C 4,4 C 6,1 C 61 % 87 % 1002,1 hPa 0,0 l/m 6,4 km/h (2 Bft) O 90 0 min 0,000 mm 0,0 UV-I 0 W/m 3,6 C 5,6 C 11,3 km/h (2 Bft) 95,65 %
15.11.2019 04:28 21,8 C 5,6 C 3,9 C 6,1 C 61 % 87 % 1002,1 hPa 0,0 l/m 6,4 km/h (2 Bft) O-SO 112 0 min 0,000 mm 0,0 UV-I 0 W/m 3,6 C 5,6 C 11,3 km/h (2 Bft) 91,30 %
15.11.2019 04:27 21,8 C 5,6 C 3,9 C 6,1 C 62 % 87 % 1002,1 hPa 0,0 l/m 6,4 km/h (2 Bft) O 90 0 min 0,000 mm 0,0 UV-I 0 W/m 3,6 C 5,6 C 11,3 km/h (2 Bft) 95,65 %
15.11.2019 04:26 21,8 C 5,6 C 3,9 C 6,1 C 61 % 87 % 1002,1 hPa 0,0 l/m 6,4 km/h (2 Bft) O 90 0 min 0,000 mm 0,0 UV-I 0 W/m 3,6 C 5,6 C 9,7 km/h (2 Bft) 95,65 %
15.11.2019 04:25 21,8 C 5,6 C 3,9 C 6,1 C 61 % 87 % 1002,1 hPa 0,0 l/m 8,0 km/h (2 Bft) O-NO 67 0 min 0,000 mm 0,0 UV-I 0 W/m 3,6 C 4,2 C 11,3 km/h (2 Bft) 95,65 %
15.11.2019 04:24 21,8 C 5,6 C 3,9 C 6,1 C 61 % 87 % 1002,1 hPa 0,0 l/m 8,0 km/h (2 Bft) O 90 0 min 0,000 mm 0,0 UV-I 0 W/m 3,6 C 4,2 C 11,3 km/h (2 Bft) 100,00 %
15.11.2019 04:23 21,8 C 5,6 C 3,9 C 6,1 C 61 % 88 % 1002,1 hPa 0,0 l/m 8,0 km/h (2 Bft) O-NO 67 0 min 0,000 mm 0,0 UV-I 0 W/m 3,8 C 4,2 C 11,3 km/h (2 Bft) 91,30 %
15.11.2019 04:22 21,8 C 5,6 C 4,4 C 6,1 C 61 % 88 % 1002,1 hPa 0,0 l/m 6,4 km/h (2 Bft) SO 135 0 min 0,000 mm 0,0 UV-I 0 W/m 3,8 C 5,6 C 12,9 km/h (3 Bft) 95,65 %
15.11.2019 04:21 21,8 C 5,5 C 4,4 C 6,1 C 61 % 88 % 1002,1 hPa 0,0 l/m 8,0 km/h (2 Bft) SO 135 0 min 0,000 mm 0,0 UV-I 0 W/m 3,7 C 4,1 C 17,7 km/h (3 Bft) 95,65 %
15.11.2019 04:20 21,8 C 5,5 C 3,9 C 6,1 C 62 % 88 % 1002,1 hPa 0,0 l/m 8,0 km/h (2 Bft) O-NO 67 0 min 0,000 mm 0,0 UV-I 0 W/m 3,7 C 4,1 C 11,3 km/h (2 Bft) 95,65 %
15.11.2019 04:19 21,8 C 5,4 C 3,9 C 6,1 C 61 % 88 % 1002,1 hPa 0,0 l/m 9,7 km/h (2 Bft) O-NO 67 0 min 0,000 mm 0,0 UV-I 0 W/m 3,6 C 2,7 C 16,1 km/h (3 Bft) 95,65 %
15.11.2019 04:18 21,8 C 5,4 C 3,9 C 6,1 C 61 % 88 % 1002,1 hPa 0,0 l/m 9,7 km/h (2 Bft) O-NO 67 0 min 0,000 mm 0,0 UV-I 0 W/m 3,6 C 2,7 C 19,3 km/h (3 Bft) 100,00 %
15.11.2019 04:17 21,8 C 5,4 C 3,9 C 6,1 C 61 % 88 % 1002,1 hPa 0,0 l/m 8,0 km/h (2 Bft) O 90 0 min 0,000 mm 0,0 UV-I 0 W/m 3,6 C 4,0 C 9,7 km/h (2 Bft) 95,65 %
15.11.2019 04:16 21,8 C 5,4 C 3,9 C 6,1 C 61 % 89 % 1002,1 hPa 0,0 l/m 11,3 km/h (2 Bft) O-SO 112 0 min 0,000 mm 0,0 UV-I 0 W/m 3,7 C 1,7 C 17,7 km/h (3 Bft) 95,65 %
15.11.2019 04:15 21,8 C 5,3 C 3,9 C 6,1 C 61 % 89 % 1002,1 hPa 0,0 l/m 8,0 km/h (2 Bft) O-NO 67 0 min 0,000 mm 0,0 UV-I 0 W/m 3,6 C 3,9 C 14,5 km/h (3 Bft) 100,00 %
15.11.2019 04:14 21,8 C 5,3 C 3,9 C 6,1 C 61 % 89 % 1002,5 hPa 0,0 l/m 6,4 km/h (2 Bft) O 90 0 min 0,000 mm 0,0 UV-I 0 W/m 3,6 C 5,3 C 11,3 km/h (2 Bft) 91,30 %
15.11.2019 04:13 21,8 C 5,3 C 3,9 C 6,1 C 61 % 89 % 1002,5 hPa 0,0 l/m 11,3 km/h (2 Bft) O 90 0 min 0,000 mm 0,0 UV-I 0 W/m 3,6 C 1,5 C 20,9 km/h (4 Bft) 95,65 %
15.11.2019 04:12 21,8 C 5,2 C 3,9 C 6,1 C 61 % 89 % 1002,5 hPa 0,0 l/m 8,0 km/h (2 Bft) O-NO 67 0 min 0,000 mm 0,0 UV-I 0 W/m 3,5 C 3,8 C 11,3 km/h (2 Bft) 95,65 %
15.11.2019 04:11 21,8 C 5,2 C 3,9 C 6,1 C 61 % 89 % 1002,5 hPa 0,0 l/m 11,3 km/h (2 Bft) O-SO 112 0 min 0,000 mm 0,0 UV-I 0 W/m 3,5 C 1,4 C 20,9 km/h (4 Bft) 100,00 %
15.11.2019 04:10 21,8 C 5,1 C 3,9 C 6,1 C 61 % 90 % 1002,5 hPa 0,0 l/m 11,3 km/h (2 Bft) O-NO 67 0 min 0,000 mm 0,0 UV-I 0 W/m 3,6 C 1,3 C 20,9 km/h (4 Bft) 95,65 %
15.11.2019 04:09 21,8 C 5,1 C 3,9 C 6,1 C 61 % 90 % 1002,5 hPa 0,0 l/m 11,3 km/h (2 Bft) O 90 0 min 0,000 mm 0,0 UV-I 0 W/m 3,6 C 1,3 C 16,1 km/h (3 Bft) 91,30 %
15.11.2019 04:08 21,8 C 5,0 C 3,9 C 6,1 C 61 % 90 % 1002,5 hPa 0,0 l/m 8,0 km/h (2 Bft) O-NO 67 0 min 0,000 mm 0,0 UV-I 0 W/m 3,5 C 3,6 C 12,9 km/h (3 Bft) 100,00 %
15.11.2019 04:07 21,8 C 4,9 C 3,3 C 6,1 C 61 % 90 % 1002,5 hPa 0,0 l/m 11,3 km/h (2 Bft) O 90 0 min 0,000 mm 0,0 UV-I 0 W/m 3,4 C 1,1 C 14,5 km/h (3 Bft) 95,65 %
15.11.2019 04:06 21,8 C 4,9 C 3,9 C 6,1 C 61 % 91 % 1002,5 hPa 0,0 l/m 9,7 km/h (2 Bft) O-NO 67 0 min 0,000 mm 0,0 UV-I 0 W/m 3,6 C 2,2 C 11,3 km/h (2 Bft) 95,65 %
15.11.2019 04:05 21,8 C 4,9 C 3,9 C 6,1 C 61 % 91 % 1002,5 hPa 0,0 l/m 8,0 km/h (2 Bft) O 90 0 min 0,000 mm 0,0 UV-I 0 W/m 3,6 C 3,5 C 12,9 km/h (3 Bft) 100,00 %
15.11.2019 04:04 21,8 C 4,8 C 3,3 C 6,1 C 61 % 91 % 1002,5 hPa 0,0 l/m 9,7 km/h (2 Bft) O 90 0 min 0,000 mm 0,0 UV-I 0 W/m 3,5 C 2,1 C 19,3 km/h (3 Bft) 95,65 %
15.11.2019 04:03 21,8 C 4,8 C 3,3 C 6,1 C 61 % 91 % 1002,5 hPa 0,0 l/m 11,3 km/h (2 Bft) O-NO 67 0 min 0,000 mm 0,0 UV-I 0 W/m 3,5 C 1,0 C 20,9 km/h (4 Bft) 95,65 %
15.11.2019 04:02 21,8 C 4,7 C 3,3 C 6,1 C 61 % 97 % 1002,5 hPa 0,0 l/m 8,0 km/h (2 Bft) O-NO 67 0 min 0,000 mm 0,0 UV-I 0 W/m 4,3 C 3,3 C 16,1 km/h (3 Bft) 100,00 %
15.11.2019 04:01 21,8 C 4,7 C 3,3 C 6,1 C 61 % 91 % 1002,5 hPa 0,0 l/m 8,0 km/h (2 Bft) O-SO 112 0 min 0,000 mm 0,0 UV-I 0 W/m 3,4 C 3,3 C 12,9 km/h (3 Bft) 91,30 %
15.11.2019 04:00 21,8 C 4,6 C 3,3 C 6,1 C 61 % 91 % 1002,5 hPa 0,0 l/m 6,4 km/h (2 Bft) O-NO 67 0 min 0,000 mm 0,0 UV-I 0 W/m 3,3 C 4,6 C 8,0 km/h (2 Bft) 95,65 %
15.11.2019 03:59 21,8 C 4,6 C 3,3 C 6,1 C 61 % 92 % 1002,5 hPa 0,0 l/m 9,7 km/h (2 Bft) O-NO 67 0 min 0,000 mm 0,0 UV-I 0 W/m 3,4 C 1,8 C 14,5 km/h (3 Bft) 100,00 %
15.11.2019 03:58 21,8 C 4,6 C 3,3 C 6,1 C 61 % 92 % 1002,5 hPa 0,0 l/m 8,0 km/h (2 Bft) NO 45 0 min 0,000 mm 0,0 UV-I 0 W/m 3,4 C 3,2 C 14,5 km/h (3 Bft) 95,65 %
15.11.2019 03:57 21,8 C 4,5 C 3,3 C 6,1 C 61 % 92 % 1002,5 hPa 0,0 l/m 8,0 km/h (2 Bft) O-NO 67 0 min 0,000 mm 0,0 UV-I 0 W/m 3,3 C 3,1 C 14,5 km/h (3 Bft) 91,30 %
15.11.2019 03:56 21,8 C 4,4 C 2,8 C 6,1 C 61 % 92 % 1002,5 hPa 0,0 l/m 6,4 km/h (2 Bft) O 90 0 min 0,000 mm 0,0 UV-I 0 W/m 3,2 C 4,4 C 14,5 km/h (3 Bft) 100,00 %
15.11.2019 03:55 21,8 C 4,4 C 2,8 C 6,1 C 61 % 92 % 1002,5 hPa 0,0 l/m 8,0 km/h (2 Bft) O 90 0 min 0,000 mm 0,0 UV-I 0 W/m 3,2 C 3,0 C 14,5 km/h (3 Bft) 91,30 %
15.11.2019 03:54 21,8 C 4,4 C 2,8 C 6,1 C 61 % 92 % 1002,5 hPa 0,0 l/m 3,2 km/h (1 Bft) O 90 0 min 0,000 mm 0,0 UV-I 0 W/m 3,2 C 4,4 C 6,4 km/h (2 Bft) 91,30 %
15.11.2019 03:53 21,8 C 4,4 C 2,8 C 6,1 C 61 % 92 % 1002,5 hPa 0,0 l/m 4,8 km/h (1 Bft) O 90 0 min 0,000 mm 0,0 UV-I 0 W/m 3,2 C 4,4 C 6,4 km/h (2 Bft) 100,00 %
15.11.2019 03:52 21,8 C 4,4 C 2,8 C 6,1 C 61 % 92 % 1002,5 hPa 0,0 l/m 3,2 km/h (1 Bft) O 90 0 min 0,000 mm 0,0 UV-I 0 W/m 3,2 C 4,4 C 4,8 km/h (1 Bft) 95,65 %
15.11.2019 03:51 21,8 C 4,4 C 2,8 C 6,1 C 61 % 92 % 1002,5 hPa 0,0 l/m 6,4 km/h (2 Bft) O-SO 112 0 min 0,000 mm 0,0 UV-I 0 W/m 3,2 C 4,4 C 9,7 km/h (2 Bft) 95,65 %
15.11.2019 03:50 21,8 C 4,4 C 2,8 C 6,1 C 61 % 92 % 1002,5 hPa 0,0 l/m 6,4 km/h (2 Bft) O 90 0 min 0,000 mm 0,0 UV-I 0 W/m 3,2 C 4,4 C 11,3 km/h (2 Bft) 95,65 %
15.11.2019 03:49 21,8 C 4,4 C 2,2 C 6,1 C 61 % 92 % 1002,5 hPa 0,0 l/m 4,8 km/h (1 Bft) O-NO 67 0 min 0,000 mm 0,0 UV-I 0 W/m 3,2 C 4,4 C 9,7 km/h (2 Bft) 91,30 %
15.11.2019 03:48 21,8 C 4,3 C 2,2 C 6,1 C 61 % 92 % 1002,5 hPa 0,0 l/m 4,8 km/h (1 Bft) O-NO 67 0 min 0,000 mm 0,0 UV-I 0 W/m 3,1 C 4,3 C 8,0 km/h (2 Bft) 95,65 %
15.11.2019 03:47 21,8 C 4,3 C 2,2 C 6,1 C 61 % 92 % 1002,5 hPa 0,0 l/m 6,4 km/h (2 Bft) O-NO 67 0 min 0,000 mm 0,0 UV-I 0 W/m 3,1 C 4,3 C 8,0 km/h (2 Bft) 95,65 %
15.11.2019 03:46 21,8 C 4,3 C 2,2 C 6,1 C 61 % 92 % 1002,5 hPa 0,0 l/m 4,8 km/h (1 Bft) O-NO 67 0 min 0,000 mm 0,0 UV-I 0 W/m 3,1 C 4,3 C 9,7 km/h (2 Bft) 86,96 %
15.11.2019 03:45 21,8 C 4,3 C 2,2 C 6,1 C 61 % 92 % 1002,5 hPa 0,0 l/m 3,2 km/h (1 Bft) O-NO 67 0 min 0,000 mm 0,0 UV-I 0 W/m 3,1 C 4,3 C 6,4 km/h (2 Bft) 91,30 %
15.11.2019 03:44 21,8 C 4,3 C 2,2 C 6,1 C 61 % 92 % 1002,5 hPa 0,0 l/m 4,8 km/h (1 Bft) O-NO 67 0 min 0,000 mm 0,0 UV-I 0 W/m 3,1 C 4,3 C 8,0 km/h (2 Bft) 91,30 %
15.11.2019 03:43 21,8 C 4,3 C 2,2 C 6,1 C 61 % 93 % 1002,5 hPa 0,0 l/m 6,4 km/h (2 Bft) O-NO 67 0 min 0,000 mm 0,0 UV-I 0 W/m 3,3 C 4,3 C 9,7 km/h (2 Bft) 91,30 %
15.11.2019 03:42 21,8 C 4,3 C 2,8 C 6,1 C 61 % 93 % 1002,5 hPa 0,0 l/m 4,8 km/h (1 Bft) O 90 0 min 0,000 mm 0,0 UV-I 0 W/m 3,3 C 4,3 C 9,7 km/h (2 Bft) 91,30 %
15.11.2019 03:41 21,8 C 4,3 C 2,8 C 6,1 C 61 % 93 % 1002,5 hPa 0,0 l/m 4,8 km/h (1 Bft) O 90 0 min 0,000 mm 0,0 UV-I 0 W/m 3,3 C 4,3 C 6,4 km/h (2 Bft) 100,00 %
15.11.2019 03:40 21,8 C 4,3 C 2,2 C 6,1 C 61 % 93 % 1002,5 hPa 0,0 l/m 8,0 km/h (2 Bft) O 90 0 min 0,000 mm 0,0 UV-I 0 W/m 3,3 C 2,9 C 12,9 km/h (3 Bft) 91,30 %
15.11.2019 03:39 21,8 C 4,3 C 2,2 C 6,1 C 61 % 93 % 1002,5 hPa 0,0 l/m 3,2 km/h (1 Bft) O-SO 112 0 min 0,000 mm 0,0 UV-I 0 W/m 3,3 C 4,3 C 4,8 km/h (1 Bft) 95,65 %
15.11.2019 03:38 21,8 C 4,3 C 2,2 C 6,1 C 61 % 93 % 1002,5 hPa 0,0 l/m 6,4 km/h (2 Bft) O-SO 112 0 min 0,000 mm 0,0 UV-I 0 W/m 3,3 C 4,3 C 8,0 km/h (2 Bft) 95,65 %
15.11.2019 03:37 21,8 C 4,3 C 2,2 C 6,1 C 61 % 93 % 1002,5 hPa 0,0 l/m 4,8 km/h (1 Bft) O-SO 112 0 min 0,000 mm 0,0 UV-I 0 W/m 3,3 C 4,3 C 6,4 km/h (2 Bft) 91,30 %
15.11.2019 03:36 21,8 C 4,3 C 2,8 C 6,1 C 61 % 93 % 1002,5 hPa 0,0 l/m 3,2 km/h (1 Bft) O-SO 112 0 min 0,000 mm 0,0 UV-I 0 W/m 3,3 C 4,3 C 6,4 km/h (2 Bft) 86,96 %
15.11.2019 03:35 21,8 C 4,2 C 2,8 C 6,1 C 61 % 93 % 1002,5 hPa 0,0 l/m 6,4 km/h (2 Bft) O-SO 112 0 min 0,000 mm 0,0 UV-I 0 W/m 3,2 C 4,2 C 9,7 km/h (2 Bft) 100,00 %
15.11.2019 03:34 21,8 C 4,2 C 2,8 C 6,1 C 61 % 93 % 1002,5 hPa 0,0 l/m 3,2 km/h (1 Bft) O-SO 112 0 min 0,000 mm 0,0 UV-I 0 W/m 3,2 C 4,2 C 8,0 km/h (2 Bft) 91,30 %
15.11.2019 03:33 21,8 C 4,2 C 2,8 C 6,1 C 61 % 93 % 1002,5 hPa 0,0 l/m 8,0 km/h (2 Bft) O 90 0 min 0,000 mm 0,0 UV-I 0 W/m 3,2 C 2,8 C 11,3 km/h (2 Bft) 91,30 %
15.11.2019 03:32 21,8 C 4,2 C 2,8 C 6,1 C 61 % 94 % 1002,5 hPa 0,0 l/m 8,0 km/h (2 Bft) O 90 0 min 0,000 mm 0,0 UV-I 0 W/m 3,3 C 2,8 C 12,9 km/h (3 Bft) 100,00 %
15.11.2019 03:31 21,8 C 4,2 C 2,8 C 6,1 C 61 % 94 % 1002,5 hPa 0,0 l/m 6,4 km/h (2 Bft) O-NO 67 0 min 0,000 mm 0,0 UV-I 0 W/m 3,3 C 4,2 C 11,3 km/h (2 Bft) 91,30 %
15.11.2019 03:30 21,9 C 4,2 C 2,8 C 6,1 C 61 % 94 % 1002,5 hPa 0,0 l/m 6,4 km/h (2 Bft) O-SO 112 0 min 0,000 mm 0,0 UV-I 0 W/m 3,3 C 4,2 C 11,3 km/h (2 Bft) 91,30 %
15.11.2019 03:29 21,9 C 4,1 C 2,8 C 6,1 C 61 % 94 % 1002,6 hPa 0,0 l/m 6,4 km/h (2 Bft) O-NO 67 0 min 0,000 mm 0,0 UV-I 0 W/m 3,2 C 4,1 C 11,3 km/h (2 Bft) 95,65 %
15.11.2019 03:28 21,9 C 4,1 C 2,8 C 6,1 C 61 % 94 % 1002,6 hPa 0,0 l/m 8,0 km/h (2 Bft) O-NO 67 0 min 0,000 mm 0,0 UV-I 0 W/m 3,2 C 2,7 C 11,3 km/h (2 Bft) 95,65 %
15.11.2019 03:27 21,9 C 4,1 C 2,8 C 6,1 C 61 % 94 % 1002,6 hPa 0,0 l/m 9,7 km/h (2 Bft) O-NO 67 0 min 0,000 mm 0,0 UV-I 0 W/m 3,2 C 1,3 C 14,5 km/h (3 Bft) 86,96 %
15.11.2019 03:26 21,9 C 4,0 C 2,8 C 6,1 C 61 % 94 % 1002,6 hPa 0,0 l/m 9,7 km/h (2 Bft) O 90 0 min 0,000 mm 0,0 UV-I 0 W/m 3,1 C 1,2 C 12,9 km/h (3 Bft) 95,65 %
15.11.2019 03:25 21,9 C 4,0 C 2,8 C 6,1 C 61 % 94 % 1002,6 hPa 0,0 l/m 9,7 km/h (2 Bft) O-NO 67 0 min 0,000 mm 0,0 UV-I 0 W/m 3,1 C 1,2 C 12,9 km/h (3 Bft) 100,00 %
15.11.2019 03:24 21,9 C 4,0 C 2,8 C 6,1 C 61 % 94 % 1002,6 hPa 0,0 l/m 8,0 km/h (2 Bft) O-NO 67 0 min 0,000 mm 0,0 UV-I 0 W/m 3,1 C 2,6 C 11,3 km/h (2 Bft) 91,30 %
15.11.2019 03:23 21,9 C 3,9 C 2,8 C 6,1 C 61 % 95 % 1002,6 hPa 0,0 l/m 8,0 km/h (2 Bft) O-NO 67 0 min 0,000 mm 0,0 UV-I 0 W/m 3,2 C 2,4 C 12,9 km/h (3 Bft) 95,65 %
15.11.2019 03:22 21,9 C 3,9 C 2,8 C 6,1 C 61 % 95 % 1002,6 hPa 0,0 l/m 6,4 km/h (2 Bft) O-NO 67 0 min 0,000 mm 0,0 UV-I 0 W/m 3,2 C 3,9 C 11,3 km/h (2 Bft) 91,30 %
15.11.2019 03:21 21,9 C 3,9 C 2,8 C 6,1 C 61 % 95 % 1002,6 hPa 0,0 l/m 6,4 km/h (2 Bft) O-NO 67 0 min 0,000 mm 0,0 UV-I 0 W/m 3,2 C 3,9 C 9,7 km/h (2 Bft) 86,96 %
15.11.2019 03:20 21,9 C 3,8 C 2,8 C 6,1 C 61 % 95 % 1002,6 hPa 0,0 l/m 6,4 km/h (2 Bft) O-NO 67 0 min 0,000 mm 0,0 UV-I 0 W/m 3,1 C 3,8 C 11,3 km/h (2 Bft) 95,65 %
15.11.2019 03:19 21,9 C 3,7 C 2,8 C 6,1 C 61 % 95 % 1002,6 hPa 0,0 l/m 8,0 km/h (2 Bft) O-NO 67 0 min 0,000 mm 0,0 UV-I 0 W/m 3,0 C 2,2 C 16,1 km/h (3 Bft) 95,65 %
15.11.2019 03:18 21,9 C 3,7 C 2,8 C 6,1 C 61 % 95 % 1002,6 hPa 0,0 l/m 9,7 km/h (2 Bft) O 90 0 min 0,000 mm 0,0 UV-I 0 W/m 3,0 C 0,9 C 12,9 km/h (3 Bft) 91,30 %
15.11.2019 03:17 21,9 C 3,6 C 2,8 C 6,1 C 61 % 95 % 1002,6 hPa 0,0 l/m 9,7 km/h (2 Bft) O-SO 112 0 min 0,000 mm 0,0 UV-I 0 W/m 2,9 C 0,8 C 16,1 km/h (3 Bft) 91,30 %
15.11.2019 03:16 21,9 C 3,5 C 2,8 C 6,1 C 61 % 95 % 1002,6 hPa 0,0 l/m 6,4 km/h (2 Bft) O-NO 67 0 min 0,000 mm 0,0 UV-I 0 W/m 2,8 C 3,5 C 8,0 km/h (2 Bft) 100,00 %
15.11.2019 03:15 21,9 C 3,4 C 2,2 C 6,1 C 61 % 95 % 1002,6 hPa 0,0 l/m 8,0 km/h (2 Bft) O 90 0 min 0,000 mm 0,0 UV-I 0 W/m 2,7 C 1,9 C 11,3 km/h (2 Bft) 95,65 %
15.11.2019 03:14 21,9 C 3,4 C 2,2 C 6,1 C 61 % 95 % 1002,9 hPa 0,0 l/m 6,4 km/h (2 Bft) O 90 0 min 0,000 mm 0,0 UV-I 0 W/m 2,7 C 3,4 C 11,3 km/h (2 Bft) 95,65 %
15.11.2019 03:13 21,9 C 3,3 C 2,2 C 6,1 C 61 % 95 % 1002,9 hPa 0,0 l/m 6,4 km/h (2 Bft) O 90 0 min 0,000 mm 0,0 UV-I 0 W/m 2,6 C 3,3 C 9,7 km/h (2 Bft) 100,00 %
15.11.2019 03:12 21,9 C 3,3 C 1,7 C 6,1 C 61 % 95 % 1002,9 hPa 0,0 l/m 4,8 km/h (1 Bft) O-NO 67 0 min 0,000 mm 0,0 UV-I 0 W/m 2,6 C 3,3 C 6,4 km/h (2 Bft) 95,65 %
15.11.2019 03:11 21,9 C 3,3 C 1,1 C 6,1 C 61 % 95 % 1002,9 hPa 0,0 l/m 4,8 km/h (1 Bft) O-NO 67 0 min 0,000 mm 0,0 UV-I 0 W/m 2,6 C 3,3 C 8,0 km/h (2 Bft) 95,65 %
15.11.2019 03:10 21,9 C 3,3 C 1,1 C 6,1 C 61 % 95 % 1002,9 hPa 0,0 l/m 4,8 km/h (1 Bft) O-NO 67 0 min 0,000 mm 0,0 UV-I 0 W/m 2,6 C 3,3 C 8,0 km/h (2 Bft) 100,00 %
15.11.2019 03:09 21,9 C 3,3 C 1,1 C 6,1 C 61 % 95 % 1002,9 hPa 0,0 l/m 4,8 km/h (1 Bft) O-NO 67 0 min 0,000 mm 0,0 UV-I 0 W/m 2,6 C 3,3 C 8,0 km/h (2 Bft) 91,30 %
15.11.2019 03:08 21,9 C 3,3 C 1,1 C 6,1 C 62 % 95 % 1002,9 hPa 0,0 l/m 4,8 km/h (1 Bft) O-NO 67 0 min 0,000 mm 0,0 UV-I 0 W/m 2,6 C 3,3 C 8,0 km/h (2 Bft) 86,96 %
15.11.2019 03:07 21,9 C 3,3 C 1,1 C 6,1 C 61 % 95 % 1002,9 hPa 0,0 l/m 3,2 km/h (1 Bft) O-NO 67 0 min 0,000 mm 0,0 UV-I 0 W/m 2,6 C 3,3 C 6,4 km/h (2 Bft) 95,65 %
15.11.2019 03:06 21,9 C 3,3 C 1,1 C 6,1 C 61 % 95 % 1002,9 hPa 0,0 l/m 0,0 km/h (0 Bft) O-NO 67 0 min 0,000 mm 0,0 UV-I 0 W/m 2,6 C 3,3 C 3,2 km/h (1 Bft) 86,96 %
15.11.2019 03:05 21,9 C 3,3 C 1,1 C 6,1 C 61 % 95 % 1002,9 hPa 0,0 l/m 0,0 km/h (0 Bft) O-NO 67 0 min 0,000 mm 0,0 UV-I 0 W/m 2,6 C 3,3 C 3,2 km/h (1 Bft) 91,30 %
15.11.2019 03:04 21,9 C 3,3 C 1,1 C 6,1 C 61 % 95 % 1002,9 hPa 0,0 l/m 0,0 km/h (0 Bft) N 0 0 min 0,000 mm 0,0 UV-I 0 W/m 2,6 C 3,3 C 0,0 km/h (0 Bft) 100,00 %
15.11.2019 03:03 21,9 C 3,3 C 1,1 C 6,1 C 61 % 95 % 1002,9 hPa 0,0 l/m 0,0 km/h (0 Bft) O-NO 67 0 min 0,000 mm 0,0 UV-I 0 W/m 2,6 C 3,3 C 1,6 km/h (1 Bft) 95,65 %
15.11.2019 03:02 21,9 C 3,3 C 1,1 C 6,1 C 61 % 95 % 1002,9 hPa 0,0 l/m 1,6 km/h (1 Bft) O-NO 67 0 min 0,000 mm 0,0 UV-I 0 W/m 2,6 C 3,3 C 3,2 km/h (1 Bft) 91,30 %
15.11.2019 03:01 21,9 C 3,3 C 1,1 C 6,1 C 61 % 95 % 1002,9 hPa 0,0 l/m 0,0 km/h (0 Bft) N 0 0 min 0,000 mm 0,0 UV-I 0 W/m 2,6 C 3,3 C 0,0 km/h (0 Bft) 95,65 %
15.11.2019 03:00 21,9 C 3,3 C 1,1 C 6,1 C 61 % 95 % 1002,9 hPa 0,0 l/m 0,0 km/h (0 Bft) O-NO 67 0 min 0,000 mm 0,0 UV-I 0 W/m 2,6 C 3,3 C 3,2 km/h (1 Bft) 86,96 %
15.11.2019 02:59 21,9 C 3,3 C 1,1 C 6,1 C 61 % 95 % 1003,1 hPa 0,0 l/m 3,2 km/h (1 Bft) O-NO 67 0 min 0,000 mm 0,0 UV-I 0 W/m 2,6 C 3,3 C 4,8 km/h (1 Bft) 91,30 %
15.11.2019 02:58 21,9 C 3,3 C 1,1 C 6,1 C 61 % 95 % 1003,1 hPa 0,0 l/m 1,6 km/h (1 Bft) O-NO 67 0 min 0,000 mm 0,0 UV-I 0 W/m 2,6 C 3,3 C 3,2 km/h (1 Bft) 100,00 %
15.11.2019 02:57 21,9 C 3,3 C 1,1 C 6,1 C 61 % 95 % 1003,1 hPa 0,0 l/m 1,6 km/h (1 Bft) O-NO 67 0 min 0,000 mm 0,0 UV-I 0 W/m 2,6 C 3,3 C 3,2 km/h (1 Bft) 91,30 %
15.11.2019 02:56 21,9 C 3,3 C 1,1 C 6,1 C 61 % 95 % 1003,1 hPa 0,0 l/m 1,6 km/h (1 Bft) O-NO 67 0 min 0,000 mm 0,0 UV-I 0 W/m 2,6 C 3,3 C 4,8 km/h (1 Bft) 91,30 %
15.11.2019 02:55 21,9 C 3,3 C 1,1 C 6,1 C 61 % 95 % 1003,1 hPa 0,0 l/m 0,0 km/h (0 Bft) O-NO 67 0 min 0,000 mm 0,0 UV-I 0 W/m 2,6 C 3,3 C 1,6 km/h (1 Bft) 95,65 %
15.11.2019 02:54 21,9 C 3,3 C 1,1 C 6,1 C 61 % 95 % 1003,1 hPa 0,0 l/m 3,2 km/h (1 Bft) O-NO 67 0 min 0,000 mm 0,0 UV-I 0 W/m 2,6 C 3,3 C 4,8 km/h (1 Bft) 95,65 %
15.11.2019 02:53 21,9 C 3,3 C 1,1 C 6,1 C 61 % 95 % 1003,1 hPa 0,0 l/m 3,2 km/h (1 Bft) O-NO 67 0 min 0,000 mm 0,0 UV-I 0 W/m 2,6 C 3,3 C 4,8 km/h (1 Bft) 91,30 %
15.11.2019 02:52 21,9 C 3,3 C 1,1 C 6,1 C 61 % 95 % 1003,1 hPa 0,0 l/m 0,0 km/h (0 Bft) N 0 0 min 0,000 mm 0,0 UV-I 0 W/m 2,6 C 3,3 C 0,0 km/h (0 Bft) 95,65 %
15.11.2019 02:51 21,9 C 3,3 C 1,1 C 6,1 C 61 % 95 % 1003,1 hPa 0,0 l/m 0,0 km/h (0 Bft) O-NO 67 0 min 0,000 mm 0,0 UV-I 0 W/m 2,6 C 3,3 C 1,6 km/h (1 Bft) 91,30 %
15.11.2019 02:50 21,9 C 3,3 C 1,1 C 6,1 C 61 % 95 % 1003,1 hPa 0,0 l/m 0,0 km/h (0 Bft) N 0 0 min 0,000 mm 0,0 UV-I 0 W/m 2,6 C 3,3 C 0,0 km/h (0 Bft) 95,65 %
15.11.2019 02:49 21,9 C 3,3 C 1,1 C 6,1 C 61 % 95 % 1003,1 hPa 0,0 l/m 0,0 km/h (0 Bft) O-NO 67 0 min 0,000 mm 0,0 UV-I 0 W/m 2,6 C 3,3 C 1,6 km/h (1 Bft) 95,65 %
15.11.2019 02:48 21,9 C 3,3 C 1,1 C 6,1 C 61 % 95 % 1003,1 hPa 0,0 l/m 1,6 km/h (1 Bft) O-NO 67 0 min 0,000 mm 0,0 UV-I 0 W/m 2,6 C 3,3 C 4,8 km/h (1 Bft) 95,65 %
15.11.2019 02:47 21,9 C 3,3 C 1,1 C 6,1 C 61 % 95 % 1003,1 hPa 0,0 l/m 0,0 km/h (0 Bft) N 0 0 min 0,000 mm 0,0 UV-I 0 W/m 2,6 C 3,3 C 0,0 km/h (0 Bft) 91,30 %
15.11.2019 02:46 21,9 C 3,3 C 1,1 C 6,1 C 61 % 95 % 1003,1 hPa 0,0 l/m 0,0 km/h (0 Bft) N 0 0 min 0,000 mm 0,0 UV-I 0 W/m 2,6 C 3,3 C 0,0 km/h (0 Bft) 100,00 %
15.11.2019 02:45 21,9 C 3,3 C 1,1 C 6,1 C 61 % 95 % 1003,1 hPa 0,0 l/m 0,0 km/h (0 Bft) N 0 0 min 0,000 mm 0,0 UV-I 0 W/m 2,6 C 3,3 C 0,0 km/h (0 Bft) 91,30 %
15.11.2019 02:44 21,9 C 3,3 C 1,7 C 6,1 C 61 % 95 % 1003,1 hPa 0,0 l/m 1,6 km/h (1 Bft) O-NO 67 0 min 0,000 mm 0,0 UV-I 0 W/m 2,6 C 3,3 C 3,2 km/h (1 Bft) 95,65 %
15.11.2019 02:43 21,9 C 3,3 C 1,7 C 6,1 C 61 % 95 % 1003,1 hPa 0,0 l/m 0,0 km/h (0 Bft) N 0 0 min 0,000 mm 0,0 UV-I 0 W/m 2,6 C 3,3 C 0,0 km/h (0 Bft) 91,30 %
15.11.2019 02:42 21,9 C 3,3 C 1,7 C 6,1 C 61 % 95 % 1003,1 hPa 0,0 l/m 1,6 km/h (1 Bft) O-NO 67 0 min 0,000 mm 0,0 UV-I 0 W/m 2,6 C 3,3 C 3,2 km/h (1 Bft) 91,30 %
15.11.2019 02:41 21,9 C 3,3 C 1,7 C 6,1 C 61 % 95 % 1003,1 hPa 0,0 l/m 1,6 km/h (1 Bft) O-NO 67 0 min 0,000 mm 0,0 UV-I 0 W/m 2,6 C 3,3 C 3,2 km/h (1 Bft) 86,96 %
15.11.2019 02:40 21,9 C 3,3 C 1,7 C 6,1 C 61 % 95 % 1003,1 hPa 0,0 l/m 1,6 km/h (1 Bft) O-NO 67 0 min 0,000 mm 0,0 UV-I 0 W/m 2,6 C 3,3 C 4,8 km/h (1 Bft) 91,30 %
15.11.2019 02:39 21,9 C 3,3 C 1,7 C 6,1 C 61 % 96 % 1003,1 hPa 0,0 l/m 1,6 km/h (1 Bft) O-NO 67 0 min 0,000 mm 0,0 UV-I 0 W/m 2,7 C 3,3 C 4,8 km/h (1 Bft) 95,65 %
15.11.2019 02:38 21,9 C 3,2 C 1,7 C 6,1 C 61 % 96 % 1003,1 hPa 0,0 l/m 3,2 km/h (1 Bft) O-NO 67 0 min 0,000 mm 0,0 UV-I 0 W/m 2,6 C 3,2 C 4,8 km/h (1 Bft) 91,30 %
15.11.2019 02:37 21,9 C 3,2 C 1,7 C 6,1 C 61 % 96 % 1003,1 hPa 0,0 l/m 3,2 km/h (1 Bft) O-NO 67 0 min 0,000 mm 0,0 UV-I 0 W/m 2,6 C 3,2 C 6,4 km/h (2 Bft) 95,65 %
15.11.2019 02:36 21,9 C 3,2 C 1,7 C 6,1 C 61 % 96 % 1003,1 hPa 0,0 l/m 3,2 km/h (1 Bft) O 90 0 min 0,000 mm 0,0 UV-I 0 W/m 2,6 C 3,2 C 6,4 km/h (2 Bft) 95,65 %
15.11.2019 02:35 21,9 C 3,2 C 1,7 C 6,1 C 61 % 96 % 1003,1 hPa 0,0 l/m 4,8 km/h (1 Bft) O-NO 67 0 min 0,000 mm 0,0 UV-I 0 W/m 2,6 C 3,2 C 9,7 km/h (2 Bft) 91,30 %
15.11.2019 02:34 21,9 C 3,2 C 1,7 C 6,1 C 61 % 96 % 1003,1 hPa 0,0 l/m 6,4 km/h (2 Bft) O-NO 67 0 min 0,000 mm 0,0 UV-I 0 W/m 2,6 C 3,2 C 6,4 km/h (2 Bft) 91,30 %
15.11.2019 02:33 21,9 C 3,2 C 1,7 C 6,1 C 61 % 96 % 1003,1 hPa 0,0 l/m 6,4 km/h (2 Bft) O-SO 112 0 min 0,000 mm 0,0 UV-I 0 W/m 2,6 C 3,2 C 9,7 km/h (2 Bft) 100,00 %
15.11.2019 02:32 21,9 C 3,1 C 1,1 C 6,1 C 61 % 96 % 1003,1 hPa 0,0 l/m 4,8 km/h (1 Bft) O-NO 67 0 min 0,000 mm 0,0 UV-I 0 W/m 2,5 C 3,1 C 9,7 km/h (2 Bft) 91,30 %
15.11.2019 02:31 21,9 C 3,1 C 1,1 C 6,1 C 61 % 96 % 1003,1 hPa 0,0 l/m 6,4 km/h (2 Bft) O-NO 67 0 min 0,000 mm 0,0 UV-I 0 W/m 2,5 C 3,1 C 11,3 km/h (2 Bft) 91,30 %
15.11.2019 02:30 21,9 C 3,1 C 1,1 C 6,1 C 61 % 96 % 1003,1 hPa 0,0 l/m 4,8 km/h (1 Bft) O-NO 67 0 min 0,000 mm 0,0 UV-I 0 W/m 2,5 C 3,1 C 8,0 km/h (2 Bft) 86,96 %
15.11.2019 02:29 21,9 C 3,1 C 1,7 C 6,1 C 61 % 96 % 1003,5 hPa 0,0 l/m 4,8 km/h (1 Bft) O-NO 67 0 min 0,000 mm 0,0 UV-I 0 W/m 2,5 C 3,1 C 8,0 km/h (2 Bft) 91,30 %
15.11.2019 02:28 21,9 C 3,1 C 1,1 C 6,1 C 61 % 96 % 1003,5 hPa 0,0 l/m 4,8 km/h (1 Bft) O-NO 67 0 min 0,000 mm 0,0 UV-I 0 W/m 2,5 C 3,1 C 4,8 km/h (1 Bft) 91,30 %
15.11.2019 02:27 21,9 C 3,1 C 1,1 C 6,1 C 61 % 95 % 1003,5 hPa 0,0 l/m 3,2 km/h (1 Bft) O-NO 67 0 min 0,000 mm 0,0 UV-I 0 W/m 2,4 C 3,1 C 4,8 km/h (1 Bft) 91,30 %
15.11.2019 02:26 21,9 C 3,1 C 1,1 C 6,1 C 61 % 95 % 1003,5 hPa 0,0 l/m 4,8 km/h (1 Bft) O-NO 67 0 min 0,000 mm 0,0 UV-I 0 W/m 2,4 C 3,1 C 9,7 km/h (2 Bft) 91,30 %
15.11.2019 02:25 21,9 C 3,1 C 1,1 C 6,1 C 61 % 95 % 1003,5 hPa 0,0 l/m 1,6 km/h (1 Bft) O-NO 67 0 min 0,000 mm 0,0 UV-I 0 W/m 2,4 C 3,1 C 4,8 km/h (1 Bft) 86,96 %
15.11.2019 02:24 21,9 C 3,1 C 1,1 C 6,1 C 61 % 95 % 1003,5 hPa 0,0 l/m 1,6 km/h (1 Bft) O-NO 67 0 min 0,000 mm 0,0 UV-I 0 W/m 2,4 C 3,1 C 4,8 km/h (1 Bft) 100,00 %
15.11.2019 02:23 21,9 C 3,1 C 1,1 C 6,1 C 61 % 95 % 1003,5 hPa 0,0 l/m 3,2 km/h (1 Bft) O-NO 67 0 min 0,000 mm 0,0 UV-I 0 W/m 2,4 C 3,1 C 8,0 km/h (2 Bft) 86,96 %
15.11.2019 02:22 21,9 C 3,0 C 1,1 C 6,1 C 62 % 95 % 1003,5 hPa 0,0 l/m 4,8 km/h (1 Bft) O-NO 67 0 min 0,000 mm 0,0 UV-I 0 W/m 2,3 C 3,0 C 6,4 km/h (2 Bft) 82,61 %
15.11.2019 02:21 21,9 C 3,0 C 0,6 C 6,1 C 61 % 95 % 1003,5 hPa 0,0 l/m 4,8 km/h (1 Bft) O-NO 67 0 min 0,000 mm 0,0 UV-I 0 W/m 2,3 C 3,0 C 8,0 km/h (2 Bft) 95,65 %
15.11.2019 02:20 21,9 C 3,0 C 0,6 C 6,1 C 61 % 95 % 1003,5 hPa 0,0 l/m 3,2 km/h (1 Bft) O-NO 67 0 min 0,000 mm 0,0 UV-I 0 W/m 2,3 C 3,0 C 4,8 km/h (1 Bft) 86,96 %
15.11.2019 02:19 21,9 C 3,0 C 0,6 C 6,1 C 61 % 95 % 1003,5 hPa 0,0 l/m 1,6 km/h (1 Bft) O-NO 67 0 min 0,000 mm 0,0 UV-I 0 W/m 2,3 C 3,0 C 4,8 km/h (1 Bft) 91,30 %
15.11.2019 02:18 21,9 C 3,0 C 0,6 C 6,1 C 61 % 95 % 1003,5 hPa 0,0 l/m 3,2 km/h (1 Bft) O-NO 67 0 min 0,000 mm 0,0 UV-I 0 W/m 2,3 C 3,0 C 4,8 km/h (1 Bft) 91,30 %
15.11.2019 02:17 21,9 C 3,0 C 0,6 C 6,1 C 61 % 95 % 1003,5 hPa 0,0 l/m 1,6 km/h (1 Bft) O-NO 67 0 min 0,000 mm 0,0 UV-I 0 W/m 2,3 C 3,0 C 3,2 km/h (1 Bft) 91,30 %
15.11.2019 02:16 21,9 C 3,0 C 0,6 C 6,1 C 62 % 95 % 1003,5 hPa 0,0 l/m 3,2 km/h (1 Bft) O-NO 67 0 min 0,000 mm 0,0 UV-I 0 W/m 2,3 C 3,0 C 3,2 km/h (1 Bft) 91,30 %
15.11.2019 02:15 21,9 C 3,0 C 0,6 C 6,1 C 61 % 95 % 1003,5 hPa 0,0 l/m 3,2 km/h (1 Bft) O-NO 67 0 min 0,000 mm 0,0 UV-I 0 W/m 2,3 C 3,0 C 4,8 km/h (1 Bft) 86,96 %
15.11.2019 02:14 21,9 C 3,0 C 1,1 C 6,1 C 61 % 95 % 1003,6 hPa 0,0 l/m 4,8 km/h (1 Bft) O-NO 67 0 min 0,000 mm 0,0 UV-I 0 W/m 2,3 C 3,0 C 6,4 km/h (2 Bft) 95,65 %
15.11.2019 02:13 21,9 C 3,0 C 0,6 C 6,1 C 61 % 96 % 1003,6 hPa 0,0 l/m 3,2 km/h (1 Bft) O-NO 67 0 min 0,000 mm 0,0 UV-I 0 W/m 2,4 C 3,0 C 3,2 km/h (1 Bft) 86,96 %
15.11.2019 02:12 21,9 C 3,0 C 0,6 C 6,1 C 61 % 96 % 1003,6 hPa 0,0 l/m 3,2 km/h (1 Bft) O-NO 67 0 min 0,000 mm 0,0 UV-I 0 W/m 2,4 C 3,0 C 4,8 km/h (1 Bft) 91,30 %
15.11.2019 02:11 21,9 C 3,0 C 0,6 C 6,1 C 61 % 96 % 1003,6 hPa 0,0 l/m 3,2 km/h (1 Bft) O-NO 67 0 min 0,000 mm 0,0 UV-I 0 W/m 2,4 C 3,0 C 4,8 km/h (1 Bft) 91,30 %
15.11.2019 02:10 21,9 C 3,0 C 0,6 C 6,1 C 61 % 96 % 1003,6 hPa 0,0 l/m 3,2 km/h (1 Bft) O-NO 67 0 min 0,000 mm 0,0 UV-I 0 W/m 2,4 C 3,0 C 4,8 km/h (1 Bft) 91,30 %
15.11.2019 02:09 21,9 C 3,0 C 0,6 C 6,1 C 61 % 96 % 1003,6 hPa 0,0 l/m 3,2 km/h (1 Bft) O-NO 67 0 min 0,000 mm 0,0 UV-I 0 W/m 2,4 C 3,0 C 6,4 km/h (2 Bft) 95,65 %
15.11.2019 02:08 21,9 C 3,0 C 0,6 C 6,1 C 61 % 96 % 1003,6 hPa 0,0 l/m 4,8 km/h (1 Bft) O-NO 67 0 min 0,000 mm 0,0 UV-I 0 W/m 2,4 C 3,0 C 6,4 km/h (2 Bft) 91,30 %
15.11.2019 02:07 21,9 C 2,9 C 0,6 C 6,1 C 61 % 96 % 1003,6 hPa 0,0 l/m 3,2 km/h (1 Bft) O-NO 67 0 min 0,000 mm 0,0 UV-I 0 W/m 2,3 C 2,9 C 3,2 km/h (1 Bft) 91,30 %
15.11.2019 02:06 21,9 C 2,9 C 0,6 C 6,1 C 61 % 96 % 1003,6 hPa 0,0 l/m 3,2 km/h (1 Bft) O-NO 67 0 min 0,000 mm 0,0 UV-I 0 W/m 2,3 C 2,9 C 4,8 km/h (1 Bft) 86,96 %
15.11.2019 02:05 21,9 C 2,9 C 1,1 C 6,1 C 61 % 96 % 1003,6 hPa 0,0 l/m 3,2 km/h (1 Bft) O-NO 67 0 min 0,000 mm 0,0 UV-I 0 W/m 2,3 C 2,9 C 4,8 km/h (1 Bft) 91,30 %
15.11.2019 02:04 21,9 C 2,9 C 0,6 C 6,1 C 61 % 96 % 1003,6 hPa 0,0 l/m 3,2 km/h (1 Bft) O-NO 67 0 min 0,000 mm 0,0 UV-I 0 W/m 2,3 C 2,9 C 4,8 km/h (1 Bft) 86,96 %
15.11.2019 02:03 21,9 C 2,9 C 0,6 C 6,1 C 61 % 96 % 1003,6 hPa 0,0 l/m 0,0 km/h (0 Bft) O-NO 67 0 min 0,000 mm 0,0 UV-I 0 W/m 2,3 C 2,9 C 4,8 km/h (1 Bft) 100,00 %
15.11.2019 02:02 21,9 C 2,9 C 0,6 C 6,1 C 61 % 96 % 1003,6 hPa 0,0 l/m 1,6 km/h (1 Bft) O-NO 67 0 min 0,000 mm 0,0 UV-I 0 W/m 2,3 C 2,9 C 4,8 km/h (1 Bft) 86,96 %
15.11.2019 02:01 21,9 C 2,9 C 0,6 C 6,1 C 61 % 96 % 1003,6 hPa 0,0 l/m 1,6 km/h (1 Bft) O-NO 67 0 min 0,000 mm 0,0 UV-I 0 W/m 2,3 C 2,9 C 4,8 km/h (1 Bft) 91,30 %
15.11.2019 02:00 21,9 C 2,9 C 0,6 C 6,1 C 61 % 96 % 1003,6 hPa 0,0 l/m 1,6 km/h (1 Bft) O-NO 67 0 min 0,000 mm 0,0 UV-I 0 W/m 2,3 C 2,9 C 3,2 km/h (1 Bft) 82,61 %
15.11.2019 01:59 21,9 C 2,9 C 0,6 C 6,1 C 61 % 96 % 1003,6 hPa 0,0 l/m 1,6 km/h (1 Bft) O-NO 67 0 min 0,000 mm 0,0 UV-I 0 W/m 2,3 C 2,9 C 6,4 km/h (2 Bft) 95,65 %
15.11.2019 01:58 21,9 C 2,9 C 0,6 C 6,1 C 61 % 96 % 1003,6 hPa 0,0 l/m 3,2 km/h (1 Bft) O-NO 67 0 min 0,000 mm 0,0 UV-I 0 W/m 2,3 C 2,9 C 6,4 km/h (2 Bft) 86,96 %
15.11.2019 01:57 21,9 C 2,9 C 1,1 C 6,1 C 61 % 96 % 1003,6 hPa 0,0 l/m 1,6 km/h (1 Bft) O-NO 67 0 min 0,000 mm 0,0 UV-I 0 W/m 2,3 C 2,9 C 4,8 km/h (1 Bft) 100,00 %
15.11.2019 01:56 21,9 C 2,9 C 1,1 C 6,1 C 61 % 96 % 1003,6 hPa 0,0 l/m 1,6 km/h (1 Bft) O-NO 67 0 min 0,000 mm 0,0 UV-I 0 W/m 2,3 C 2,9 C 3,2 km/h (1 Bft) 86,96 %
15.11.2019 01:55 21,9 C 2,9 C 1,1 C 6,1 C 61 % 96 % 1003,6 hPa 0,0 l/m 3,2 km/h (1 Bft) O-NO 67 0 min 0,000 mm 0,0 UV-I 0 W/m 2,3 C 2,9 C 4,8 km/h (1 Bft) 86,96 %
15.11.2019 01:54 21,9 C 2,9 C 1,1 C 6,1 C 61 % 96 % 1003,6 hPa 0,0 l/m 1,6 km/h (1 Bft) O-NO 67 0 min 0,000 mm 0,0 UV-I 0 W/m 2,3 C 2,9 C 3,2 km/h (1 Bft) 95,65 %
15.11.2019 01:53 21,9 C 2,9 C 1,1 C 6,1 C 61 % 96 % 1003,6 hPa 0,0 l/m 3,2 km/h (1 Bft) O-NO 67 0 min 0,000 mm 0,0 UV-I 0 W/m 2,3 C 2,9 C 6,4 km/h (2 Bft) 86,96 %
15.11.2019 01:52 21,9 C 2,9 C 1,1 C 6,1 C 61 % 96 % 1003,6 hPa 0,0 l/m 4,8 km/h (1 Bft) O-NO 67 0 min 0,000 mm 0,0 UV-I 0 W/m 2,3 C 2,9 C 6,4 km/h (2 Bft) 95,65 %
15.11.2019 01:51 21,9 C 2,9 C 1,1 C 6,1 C 61 % 96 % 1003,6 hPa 0,0 l/m 3,2 km/h (1 Bft) O-NO 67 0 min 0,000 mm 0,0 UV-I 0 W/m 2,3 C 2,9 C 4,8 km/h (1 Bft) 91,30 %
15.11.2019 01:50 21,9 C 2,9 C 1,1 C 6,1 C 61 % 96 % 1003,6 hPa 0,0 l/m 4,8 km/h (1 Bft) O-NO 67 0 min 0,000 mm 0,0 UV-I 0 W/m 2,3 C 2,9 C 6,4 km/h (2 Bft) 100,00 %
15.11.2019 01:49 21,9 C 2,9 C 1,1 C 6,1 C 61 % 96 % 1003,6 hPa 0,0 l/m 3,2 km/h (1 Bft) O-NO 67 0 min 0,000 mm 0,0 UV-I 0 W/m 2,3 C 2,9 C 4,8 km/h (1 Bft) 91,30 %
15.11.2019 01:48 21,9 C 2,9 C 1,1 C 6,1 C 61 % 96 % 1003,6 hPa 0,0 l/m 4,8 km/h (1 Bft) O-NO 67 0 min 0,000 mm 0,0 UV-I 0 W/m 2,3 C 2,9 C 4,8 km/h (1 Bft) 91,30 %
15.11.2019 01:47 21,9 C 2,9 C 1,1 C 6,1 C 61 % 96 % 1003,6 hPa 0,0 l/m 4,8 km/h (1 Bft) O-NO 67 0 min 0,000 mm 0,0 UV-I 0 W/m 2,3 C 2,9 C 8,0 km/h (2 Bft) 95,65 %
15.11.2019 01:46 21,9 C 2,9 C 0,6 C 6,1 C 61 % 96 % 1003,6 hPa 0,0 l/m 4,8 km/h (1 Bft) NO 45 0 min 0,000 mm 0,0 UV-I 0 W/m 2,3 C 2,9 C 8,0 km/h (2 Bft) 95,65 %
15.11.2019 01:45 21,9 C 2,9 C 0,6 C 6,1 C 61 % 96 % 1003,6 hPa 0,0 l/m 6,4 km/h (2 Bft) O-NO 67 0 min 0,000 mm 0,0 UV-I 0 W/m 2,3 C 2,9 C 9,7 km/h (2 Bft) 91,30 %
15.11.2019 01:44 21,9 C 2,9 C 0,6 C 6,1 C 61 % 96 % 1003,7 hPa 0,0 l/m 1,6 km/h (1 Bft) O 90 0 min 0,000 mm 0,0 UV-I 0 W/m 2,3 C 2,9 C 4,8 km/h (1 Bft) 100,00 %
15.11.2019 01:43 21,9 C 2,9 C 1,1 C 6,1 C 61 % 96 % 1003,7 hPa 0,0 l/m 3,2 km/h (1 Bft) O 90 0 min 0,000 mm 0,0 UV-I 0 W/m 2,3 C 2,9 C 6,4 km/h (2 Bft) 86,96 %
15.11.2019 01:42 21,9 C 2,9 C 1,1 C 6,1 C 61 % 96 % 1003,7 hPa 0,0 l/m 4,8 km/h (1 Bft) O 90 0 min 0,000 mm 0,0 UV-I 0 W/m 2,3 C 2,9 C 9,7 km/h (2 Bft) 91,30 %
15.11.2019 01:41 21,9 C 2,9 C 0,6 C 6,1 C 61 % 96 % 1003,7 hPa 0,0 l/m 1,6 km/h (1 Bft) O 90 0 min 0,000 mm 0,0 UV-I 0 W/m 2,3 C 2,9 C 6,4 km/h (2 Bft) 95,65 %
15.11.2019 01:40 21,9 C 2,9 C 1,1 C 6,1 C 61 % 96 % 1003,7 hPa 0,0 l/m 4,8 km/h (1 Bft) O 90 0 min 0,000 mm 0,0 UV-I 0 W/m 2,3 C 2,9 C 6,4 km/h (2 Bft) 91,30 %
15.11.2019 01:39 22,1 C 2,9 C 1,1 C 6,1 C 61 % 96 % 1003,7 hPa 0,0 l/m 3,2 km/h (1 Bft) O 90 0 min 0,000 mm 0,0 UV-I 0 W/m 2,3 C 2,9 C 4,8 km/h (1 Bft) 91,30 %
15.11.2019 01:38 22,1 C 2,9 C 0,6 C 6,1 C 61 % 96 % 1003,7 hPa 0,0 l/m 4,8 km/h (1 Bft) O 90 0 min 0,000 mm 0,0 UV-I 0 W/m 2,3 C 2,9 C 4,8 km/h (1 Bft) 91,30 %
15.11.2019 01:37 22,1 C 2,9 C 0,0 C 6,1 C 61 % 96 % 1003,7 hPa 0,0 l/m 3,2 km/h (1 Bft) O 90 0 min 0,000 mm 0,0 UV-I 0 W/m 2,3 C 2,9 C 6,4 km/h (2 Bft) 95,65 %
15.11.2019 01:36 22,1 C 2,9 C 0,6 C 6,1 C 61 % 96 % 1003,7 hPa 0,0 l/m 3,2 km/h (1 Bft) O 90 0 min 0,000 mm 0,0 UV-I 0 W/m 2,3 C 2,9 C 4,8 km/h (1 Bft) 91,30 %
15.11.2019 01:35 22,1 C 2,9 C 0,6 C 6,1 C 61 % 96 % 1003,7 hPa 0,0 l/m 3,2 km/h (1 Bft) O 90 0 min 0,000 mm 0,0 UV-I 0 W/m 2,3 C 2,9 C 6,4 km/h (2 Bft) 100,00 %
15.11.2019 01:34 22,1 C 2,9 C 0,6 C 6,1 C 61 % 96 % 1003,7 hPa 0,0 l/m 3,2 km/h (1 Bft) O 90 0 min 0,000 mm 0,0 UV-I 0 W/m 2,3 C 2,9 C 4,8 km/h (1 Bft) 91,30 %
15.11.2019 01:33 22,1 C 2,9 C 0,6 C 6,1 C 61 % 96 % 1003,7 hPa 0,0 l/m 3,2 km/h (1 Bft) O 90 0 min 0,000 mm 0,0 UV-I 0 W/m 2,3 C 2,9 C 6,4 km/h (2 Bft) 95,65 %
15.11.2019 01:32 22,1 C 2,9 C 0,6 C 6,1 C 61 % 96 % 1003,7 hPa 0,0 l/m 4,8 km/h (1 Bft) O 90 0 min 0,000 mm 0,0 UV-I 0 W/m 2,3 C 2,9 C 6,4 km/h (2 Bft) 95,65 %
15.11.2019 01:31 22,1 C 2,9 C 0,6 C 6,1 C 61 % 96 % 1003,7 hPa 0,0 l/m 4,8 km/h (1 Bft) O 90 0 min 0,000 mm 0,0 UV-I 0 W/m 2,3 C 2,9 C 8,0 km/h (2 Bft) 91,30 %
15.11.2019 01:30 22,1 C 2,9 C 0,0 C 6,1 C 61 % 96 % 1003,7 hPa 0,0 l/m 4,8 km/h (1 Bft) O 90 0 min 0,000 mm 0,0 UV-I 0 W/m 2,3 C 2,9 C 6,4 km/h (2 Bft) 91,30 %
15.11.2019 01:29 22,1 C 2,9 C 0,0 C 6,1 C 61 % 96 % 1003,8 hPa 0,0 l/m 3,2 km/h (1 Bft) O 90 0 min 0,000 mm 0,0 UV-I 0 W/m 2,3 C 2,9 C 4,8 km/h (1 Bft) 100,00 %
15.11.2019 01:28 22,1 C 2,9 C 0,0 C 6,1 C 61 % 96 % 1003,8 hPa 0,0 l/m 3,2 km/h (1 Bft) O 90 0 min 0,000 mm 0,0 UV-I 0 W/m 2,3 C 2,9 C 6,4 km/h (2 Bft) 91,30 %
15.11.2019 01:27 22,1 C 2,9 C 0,0 C 6,1 C 61 % 96 % 1003,8 hPa 0,0 l/m 3,2 km/h (1 Bft) O 90 0 min 0,000 mm 0,0 UV-I 0 W/m 2,3 C 2,9 C 8,0 km/h (2 Bft) 95,65 %
15.11.2019 01:26 22,1 C 2,9 C 0,0 C 6,1 C 61 % 96 % 1003,8 hPa 0,0 l/m 0,0 km/h (0 Bft) O 90 0 min 0,000 mm 0,0 UV-I 0 W/m 2,3 C 2,9 C 1,6 km/h (1 Bft) 95,65 %
15.11.2019 01:25 22,1 C 2,9 C 0,0 C 6,1 C 61 % 96 % 1003,8 hPa 0,0 l/m 1,6 km/h (1 Bft) O 90 0 min 0,000 mm 0,0 UV-I 0 W/m 2,3 C 2,9 C 3,2 km/h (1 Bft) 95,65 %
15.11.2019 01:24 22,1 C 3,0 C 0,0 C 6,1 C 61 % 96 % 1003,8 hPa 0,0 l/m 3,2 km/h (1 Bft) O 90 0 min 0,000 mm 0,0 UV-I 0 W/m 2,4 C 3,0 C 4,8 km/h (1 Bft) 91,30 %
15.11.2019 01:23 22,1 C 3,0 C 0,0 C 6,1 C 61 % 96 % 1003,8 hPa 0,0 l/m 1,6 km/h (1 Bft) O 90 0 min 0,000 mm 0,0 UV-I 0 W/m 2,4 C 3,0 C 4,8 km/h (1 Bft) 91,30 %
15.11.2019 01:22 22,1 C 3,0 C 0,6 C 6,1 C 61 % 96 % 1003,8 hPa 0,0 l/m 3,2 km/h (1 Bft) O 90 0 min 0,000 mm 0,0 UV-I 0 W/m 2,4 C 3,0 C 4,8 km/h (1 Bft) 95,65 %
15.11.2019 01:21 22,1 C 3,0 C 0,0 C 6,1 C 61 % 96 % 1003,8 hPa 0,0 l/m 3,2 km/h (1 Bft) O 90 0 min 0,000 mm 0,0 UV-I 0 W/m 2,4 C 3,0 C 4,8 km/h (1 Bft) 91,30 %
15.11.2019 01:20 22,1 C 3,0 C 0,6 C 6,1 C 61 % 96 % 1003,8 hPa 0,0 l/m 0,0 km/h (0 Bft) N 0 0 min 0,000 mm 0,0 UV-I 0 W/m 2,4 C 3,0 C 0,0 km/h (0 Bft) 100,00 %
15.11.2019 01:19 22,1 C 3,0 C 0,6 C 6,1 C 61 % 96 % 1003,8 hPa 0,0 l/m 1,6 km/h (1 Bft) O 90 0 min 0,000 mm 0,0 UV-I 0 W/m 2,4 C 3,0 C 3,2 km/h (1 Bft) 91,30 %
15.11.2019 01:18 22,1 C 3,0 C 0,6 C 6,1 C 61 % 96 % 1003,8 hPa 0,0 l/m 3,2 km/h (1 Bft) O 90 0 min 0,000 mm 0,0 UV-I 0 W/m 2,4 C 3,0 C 4,8 km/h (1 Bft) 91,30 %
15.11.2019 01:17 22,1 C 3,0 C 0,6 C 6,1 C 61 % 96 % 1003,8 hPa 0,0 l/m 3,2 km/h (1 Bft) O 90 0 min 0,000 mm 0,0 UV-I 0 W/m 2,4 C 3,0 C 4,8 km/h (1 Bft) 91,30 %
15.11.2019 01:16 22,1 C 3,0 C 1,1 C 6,1 C 61 % 96 % 1003,8 hPa 0,0 l/m 4,8 km/h (1 Bft) O 90 0 min 0,000 mm 0,0 UV-I 0 W/m 2,4 C 3,0 C 11,3 km/h (2 Bft) 95,65 %
15.11.2019 01:15 22,1 C 2,9 C 1,1 C 6,1 C 61 % 96 % 1003,8 hPa 0,0 l/m 3,2 km/h (1 Bft) O 90 0 min 0,000 mm 0,0 UV-I 0 W/m 2,3 C 2,9 C 6,4 km/h (2 Bft) 91,30 %
15.11.2019 01:14 22,1 C 2,9 C 1,7 C 6,1 C 61 % 96 % 1004,1 hPa 0,0 l/m 3,2 km/h (1 Bft) O 90 0 min 0,000 mm 0,0 UV-I 0 W/m 2,3 C 2,9 C 4,8 km/h (1 Bft) 95,65 %
15.11.2019 01:13 22,1 C 2,9 C 1,1 C 6,1 C 61 % 96 % 1004,1 hPa 0,0 l/m 3,2 km/h (1 Bft) O 90 0 min 0,000 mm 0,0 UV-I 0 W/m 2,3 C 2,9 C 6,4 km/h (2 Bft) 91,30 %
15.11.2019 01:12 22,1 C 2,9 C 0,6 C 6,1 C 61 % 96 % 1004,1 hPa 0,0 l/m 8,0 km/h (2 Bft) O 90 0 min 0,000 mm 0,0 UV-I 0 W/m 2,3 C 1,4 C 11,3 km/h (2 Bft) 95,65 %
15.11.2019 01:11 22,1 C 2,9 C 0,6 C 6,1 C 61 % 96 % 1004,1 hPa 0,0 l/m 4,8 km/h (1 Bft) O 90 0 min 0,000 mm 0,0 UV-I 0 W/m 2,3 C 2,9 C 8,0 km/h (2 Bft) 95,65 %
15.11.2019 01:10 22,1 C 2,9 C 0,6 C 6,1 C 61 % 96 % 1004,1 hPa 0,0 l/m 4,8 km/h (1 Bft) O 90 0 min 0,000 mm 0,0 UV-I 0 W/m 2,3 C 2,9 C 8,0 km/h (2 Bft) 95,65 %
15.11.2019 01:09 22,1 C 2,9 C 0,0 C 6,1 C 61 % 96 % 1004,1 hPa 0,0 l/m 6,4 km/h (2 Bft) O 90 0 min 0,000 mm 0,0 UV-I 0 W/m 2,3 C 2,9 C 11,3 km/h (2 Bft) 91,30 %
15.11.2019 01:08 22,1 C 2,9 C -0,6 C 6,1 C 61 % 96 % 1004,1 hPa 0,0 l/m 6,4 km/h (2 Bft) O 90 0 min 0,000 mm 0,0 UV-I 0 W/m 2,3 C 2,9 C 9,7 km/h (2 Bft) 95,65 %
15.11.2019 01:07 22,1 C 2,9 C -0,6 C 6,1 C 61 % 96 % 1004,1 hPa 0,0 l/m 6,4 km/h (2 Bft) O 90 0 min 0,000 mm 0,0 UV-I 0 W/m 2,3 C 2,9 C 9,7 km/h (2 Bft) 95,65 %
15.11.2019 01:06 22,1 C 2,9 C -0,6 C 6,1 C 61 % 96 % 1004,1 hPa 0,0 l/m 3,2 km/h (1 Bft) O 90 0 min 0,000 mm 0,0 UV-I 0 W/m 2,3 C 2,9 C 6,4 km/h (2 Bft) 91,30 %
15.11.2019 01:05 22,1 C 2,9 C -0,6 C 6,1 C 61 % 96 % 1004,1 hPa 0,0 l/m 1,6 km/h (1 Bft) O 90 0 min 0,000 mm 0,0 UV-I 0 W/m 2,3 C 2,9 C 4,8 km/h (1 Bft) 91,30 %
15.11.2019 01:04 22,1 C 2,9 C 0,0 C 6,1 C 61 % 96 % 1004,1 hPa 0,0 l/m 0,0 km/h (0 Bft) O 90 0 min 0,000 mm 0,0 UV-I 0 W/m 2,3 C 2,9 C 1,6 km/h (1 Bft) 95,65 %
15.11.2019 01:03 22,1 C 2,9 C 0,0 C 6,1 C 61 % 96 % 1004,1 hPa 0,0 l/m 3,2 km/h (1 Bft) O 90 0 min 0,000 mm 0,0 UV-I 0 W/m 2,3 C 2,9 C 4,8 km/h (1 Bft) 91,30 %
15.11.2019 01:02 22,1 C 2,9 C 0,0 C 6,1 C 61 % 96 % 1004,1 hPa 0,0 l/m 1,6 km/h (1 Bft) O 90 0 min 0,000 mm 0,0 UV-I 0 W/m 2,3 C 2,9 C 3,2 km/h (1 Bft) 91,30 %
15.11.2019 01:01 22,1 C 2,9 C 0,0 C 6,1 C 61 % 96 % 1004,1 hPa 0,0 l/m 1,6 km/h (1 Bft) O 90 0 min 0,000 mm 0,0 UV-I 0 W/m 2,3 C 2,9 C 4,8 km/h (1 Bft) 95,65 %
15.11.2019 01:00 22,1 C 2,9 C 0,0 C 6,1 C 61 % 96 % 1004,1 hPa 0,0 l/m 0,0 km/h (0 Bft) N 0 0 min 0,000 mm 0,0 UV-I 0 W/m 2,3 C 2,9 C 0,0 km/h (0 Bft) 91,30 %
15.11.2019 00:59 22,1 C 3,0 C 0,0 C 6,1 C 62 % 96 % 1004,0 hPa 0,0 l/m 0,0 km/h (0 Bft) O 90 0 min 0,000 mm 0,0 UV-I 0 W/m 2,4 C 3,0 C 1,6 km/h (1 Bft) 95,65 %
15.11.2019 00:58 22,1 C 3,0 C 0,0 C 6,1 C 61 % 96 % 1004,0 hPa 0,0 l/m 1,6 km/h (1 Bft) O 90 0 min 0,000 mm 0,0 UV-I 0 W/m 2,4 C 3,0 C 3,2 km/h (1 Bft) 95,65 %
15.11.2019 00:57 22,1 C 3,0 C 0,6 C 6,1 C 61 % 96 % 1004,0 hPa 0,0 l/m 0,0 km/h (0 Bft) N 0 0 min 0,000 mm 0,0 UV-I 0 W/m 2,4 C 3,0 C 0,0 km/h (0 Bft) 95,65 %
15.11.2019 00:56 22,1 C 3,0 C 0,6 C 6,1 C 61 % 96 % 1004,0 hPa 0,0 l/m 0,0 km/h (0 Bft) N 0 0 min 0,000 mm 0,0 UV-I 0 W/m 2,4 C 3,0 C 0,0 km/h (0 Bft) 91,30 %
15.11.2019 00:55 22,1 C 3,0 C 1,1 C 6,1 C 61 % 96 % 1004,0 hPa 0,0 l/m 0,0 km/h (0 Bft) N 0 0 min 0,000 mm 0,0 UV-I 0 W/m 2,4 C 3,0 C 0,0 km/h (0 Bft) 100,00 %
15.11.2019 00:54 22,1 C 2,9 C 1,1 C 6,1 C 61 % 96 % 1004,0 hPa 0,0 l/m 1,6 km/h (1 Bft) O 90 0 min 0,000 mm 0,0 UV-I 0 W/m 2,3 C 2,9 C 4,8 km/h (1 Bft) 91,30 %
15.11.2019 00:53 22,1 C 3,0 C 0,6 C 6,1 C 61 % 96 % 1004,0 hPa 0,0 l/m 4,8 km/h (1 Bft) O 90 0 min 0,000 mm 0,0 UV-I 0 W/m 2,4 C 3,0 C 9,7 km/h (2 Bft) 86,96 %
15.11.2019 00:52 22,1 C 3,0 C 1,1 C 6,1 C 61 % 96 % 1004,0 hPa 0,0 l/m 1,6 km/h (1 Bft) O 90 0 min 0,000 mm 0,0 UV-I 0 W/m 2,4 C 3,0 C 3,2 km/h (1 Bft) 91,30 %
15.11.2019 00:51 22,1 C 3,0 C 1,1 C 6,1 C 61 % 96 % 1004,0 hPa 0,0 l/m 1,6 km/h (1 Bft) O 90 0 min 0,000 mm 0,0 UV-I 0 W/m 2,4 C 3,0 C 3,2 km/h (1 Bft) 91,30 %
15.11.2019 00:50 22,1 C 3,0 C 1,1 C 6,1 C 61 % 96 % 1004,0 hPa 0,0 l/m 1,6 km/h (1 Bft) O 90 0 min 0,000 mm 0,0 UV-I 0 W/m 2,4 C 3,0 C 3,2 km/h (1 Bft) 91,30 %
15.11.2019 00:49 22,1 C 3,0 C 1,1 C 6,1 C 61 % 96 % 1004,0 hPa 0,0 l/m 0,0 km/h (0 Bft) O 90 0 min 0,000 mm 0,0 UV-I 0 W/m 2,4 C 3,0 C 3,2 km/h (1 Bft) 95,65 %
15.11.2019 00:48 22,1 C 3,0 C 1,1 C 6,1 C 61 % 96 % 1004,0 hPa 0,0 l/m 1,6 km/h (1 Bft) O 90 0 min 0,000 mm 0,0 UV-I 0 W/m 2,4 C 3,0 C 4,8 km/h (1 Bft) 95,65 %
15.11.2019 00:47 22,1 C 2,9 C 1,1 C 6,1 C 61 % 96 % 1004,0 hPa 0,0 l/m 4,8 km/h (1 Bft) O 90 0 min 0,000 mm 0,0 UV-I 0 W/m 2,3 C 2,9 C 8,0 km/h (2 Bft) 91,30 %
15.11.2019 00:46 22,1 C 2,9 C 0,6 C 6,1 C 61 % 96 % 1004,0 hPa 0,0 l/m 4,8 km/h (1 Bft) O-NO 67 0 min 0,000 mm 0,0 UV-I 0 W/m 2,3 C 2,9 C 11,3 km/h (2 Bft) 91,30 %
15.11.2019 00:45 22,1 C 2,9 C 0,6 C 6,1 C 61 % 96 % 1004,0 hPa 0,0 l/m 4,8 km/h (1 Bft) O-NO 67 0 min 0,000 mm 0,0 UV-I 0 W/m 2,3 C 2,9 C 12,9 km/h (3 Bft) 91,30 %
15.11.2019 00:44 22,1 C 2,9 C 0,6 C 6,1 C 61 % 96 % 1004,1 hPa 0,0 l/m 3,2 km/h (1 Bft) O-NO 67 0 min 0,000 mm 0,0 UV-I 0 W/m 2,3 C 2,9 C 8,0 km/h (2 Bft) 91,30 %
15.11.2019 00:43 22,1 C 2,9 C 1,1 C 6,1 C 61 % 96 % 1004,1 hPa 0,0 l/m 3,2 km/h (1 Bft) O-NO 67 0 min 0,000 mm 0,0 UV-I 0 W/m 2,3 C 2,9 C 6,4 km/h (2 Bft) 95,65 %
15.11.2019 00:42 22,1 C 2,9 C 1,1 C 6,1 C 61 % 96 % 1004,1 hPa 0,0 l/m 1,6 km/h (1 Bft) O-NO 67 0 min 0,000 mm 0,0 UV-I 0 W/m 2,3 C 2,9 C 3,2 km/h (1 Bft) 91,30 %
15.11.2019 00:41 22,1 C 2,9 C 1,1 C 6,1 C 61 % 96 % 1004,1 hPa 0,0 l/m 3,2 km/h (1 Bft) O-NO 67 0 min 0,000 mm 0,0 UV-I 0 W/m 2,3 C 2,9 C 6,4 km/h (2 Bft) 95,65 %
15.11.2019 00:40 22,1 C 2,9 C 1,1 C 6,1 C 61 % 96 % 1004,1 hPa 0,0 l/m 3,2 km/h (1 Bft) O-NO 67 0 min 0,000 mm 0,0 UV-I 0 W/m 2,3 C 2,9 C 4,8 km/h (1 Bft) 95,65 %
15.11.2019 00:39 22,1 C 2,9 C 1,1 C 6,1 C 61 % 96 % 1004,1 hPa 0,0 l/m 3,2 km/h (1 Bft) O-NO 67 0 min 0,000 mm 0,0 UV-I 0 W/m 2,3 C 2,9 C 6,4 km/h (2 Bft) 95,65 %
15.11.2019 00:38 22,1 C 2,9 C 1,7 C 6,1 C 61 % 96 % 1004,1 hPa 0,0 l/m 4,8 km/h (1 Bft) O-NO 67 0 min 0,000 mm 0,0 UV-I 0 W/m 2,3 C 2,9 C 6,4 km/h (2 Bft) 82,61 %
15.11.2019 00:37 22,1 C 2,9 C 1,7 C 6,1 C 61 % 96 % 1004,1 hPa 0,0 l/m 4,8 km/h (1 Bft) O-NO 67 0 min 0,000 mm 0,0 UV-I 0 W/m 2,3 C 2,9 C 8,0 km/h (2 Bft) 100,00 %
15.11.2019 00:36 22,1 C 2,9 C 1,7 C 6,1 C 61 % 96 % 1004,1 hPa 0,0 l/m 4,8 km/h (1 Bft) O-NO 67 0 min 0,000 mm 0,0 UV-I 0 W/m 2,3 C 2,9 C 11,3 km/h (2 Bft) 91,30 %
15.11.2019 00:35 22,1 C 2,9 C 1,7 C 6,1 C 61 % 96 % 1004,1 hPa 0,0 l/m 3,2 km/h (1 Bft) O-NO 67 0 min 0,000 mm 0,0 UV-I 0 W/m 2,3 C 2,9 C 4,8 km/h (1 Bft) 95,65 %
15.11.2019 00:34 22,1 C 2,9 C 1,7 C 6,1 C 61 % 97 % 1004,1 hPa 0,0 l/m 3,2 km/h (1 Bft) O-NO 67 0 min 0,000 mm 0,0 UV-I 0 W/m 2,5 C 2,9 C 4,8 km/h (1 Bft) 86,96 %
15.11.2019 00:33 22,1 C 2,9 C 1,7 C 6,1 C 61 % 97 % 1004,1 hPa 0,0 l/m 3,2 km/h (1 Bft) O-NO 67 0 min 0,000 mm 0,0 UV-I 0 W/m 2,5 C 2,9 C 4,8 km/h (1 Bft) 91,30 %
15.11.2019 00:32 22,1 C 2,8 C 1,7 C 6,1 C 61 % 97 % 1004,1 hPa 0,0 l/m 6,4 km/h (2 Bft) O-NO 67 0 min 0,000 mm 0,0 UV-I 0 W/m 2,4 C 2,8 C 8,0 km/h (2 Bft) 91,30 %
15.11.2019 00:31 22,1 C 2,8 C 1,7 C 6,1 C 61 % 97 % 1004,1 hPa 0,0 l/m 4,8 km/h (1 Bft) O 90 0 min 0,000 mm 0,0 UV-I 0 W/m 2,4 C 2,8 C 8,0 km/h (2 Bft) 95,65 %
15.11.2019 00:30 22,1 C 2,8 C 1,7 C 6,1 C 61 % 96 % 1004,1 hPa 0,0 l/m 6,4 km/h (2 Bft) O 90 0 min 0,000 mm 0,0 UV-I 0 W/m 2,2 C 2,8 C 8,0 km/h (2 Bft) 95,65 %
15.11.2019 00:29 22,1 C 2,7 C 1,1 C 6,1 C 61 % 96 % 1004,2 hPa 0,0 l/m 3,2 km/h (1 Bft) O 90 0 min 0,000 mm 0,0 UV-I 0 W/m 2,1 C 2,7 C 8,0 km/h (2 Bft) 91,30 %
15.11.2019 00:28 22,1 C 2,7 C 1,1 C 6,1 C 61 % 96 % 1004,2 hPa 0,0 l/m 4,8 km/h (1 Bft) O 90 0 min 0,000 mm 0,0 UV-I 0 W/m 2,1 C 2,7 C 8,0 km/h (2 Bft) 100,00 %
15.11.2019 00:27 22,1 C 2,7 C 1,1 C 6,1 C 61 % 96 % 1004,2 hPa 0,0 l/m 6,4 km/h (2 Bft) O-NO 67 0 min 0,000 mm 0,0 UV-I 0 W/m 2,1 C 2,7 C 8,0 km/h (2 Bft) 91,30 %
15.11.2019 00:26 22,1 C 2,7 C 1,1 C 6,1 C 61 % 96 % 1004,2 hPa 0,0 l/m 4,8 km/h (1 Bft) O-NO 67 0 min 0,000 mm 0,0 UV-I 0 W/m 2,1 C 2,7 C 12,9 km/h (3 Bft) 95,65 %
15.11.2019 00:25 22,1 C 2,7 C 1,1 C 6,1 C 61 % 96 % 1004,2 hPa 0,0 l/m 6,4 km/h (2 Bft) O-NO 67 0 min 0,000 mm 0,0 UV-I 0 W/m 2,1 C 2,7 C 11,3 km/h (2 Bft) 100,00 %
15.11.2019 00:24 22,1 C 2,6 C 0,6 C 6,1 C 61 % 96 % 1004,2 hPa 0,0 l/m 6,4 km/h (2 Bft) O 90 0 min 0,000 mm 0,0 UV-I 0 W/m 2,0 C 2,6 C 12,9 km/h (3 Bft) 91,30 %
15.11.2019 00:23 22,1 C 2,6 C 0,6 C 6,1 C 61 % 96 % 1004,2 hPa 0,0 l/m 6,4 km/h (2 Bft) NO 45 0 min 0,000 mm 0,0 UV-I 0 W/m 2,0 C 2,6 C 9,7 km/h (2 Bft) 95,65 %
15.11.2019 00:22 22,1 C 2,6 C 0,6 C 6,1 C 61 % 96 % 1004,2 hPa 0,0 l/m 4,8 km/h (1 Bft) O 90 0 min 0,000 mm 0,0 UV-I 0 W/m 2,0 C 2,6 C 8,0 km/h (2 Bft) 91,30 %
15.11.2019 00:21 22,1 C 2,6 C 0,6 C 6,1 C 62 % 96 % 1004,2 hPa 0,0 l/m 6,4 km/h (2 Bft) O 90 0 min 0,000 mm 0,0 UV-I 0 W/m 2,0 C 2,6 C 8,0 km/h (2 Bft) 95,65 %
15.11.2019 00:20 22,1 C 2,6 C 0,6 C 6,1 C 61 % 96 % 1004,2 hPa 0,0 l/m 3,2 km/h (1 Bft) O 90 0 min 0,000 mm 0,0 UV-I 0 W/m 2,0 C 2,6 C 4,8 km/h (1 Bft) 91,30 %
15.11.2019 00:19 22,1 C 2,6 C 0,6 C 6,1 C 61 % 96 % 1004,2 hPa 0,0 l/m 1,6 km/h (1 Bft) O 90 0 min 0,000 mm 0,0 UV-I 0 W/m 2,0 C 2,6 C 3,2 km/h (1 Bft) 95,65 %
15.11.2019 00:18 22,1 C 2,5 C 0,6 C 6,1 C 61 % 96 % 1004,2 hPa 0,0 l/m 3,2 km/h (1 Bft) O 90 0 min 0,000 mm 0,0 UV-I 0 W/m 1,9 C 2,5 C 6,4 km/h (2 Bft) 95,65 %
15.11.2019 00:17 22,1 C 2,5 C 0,0 C 6,1 C 61 % 96 % 1004,2 hPa 0,0 l/m 4,8 km/h (1 Bft) O 90 0 min 0,000 mm 0,0 UV-I 0 W/m 1,9 C 2,5 C 8,0 km/h (2 Bft) 91,30 %
15.11.2019 00:16 22,1 C 2,5 C 0,0 C 6,1 C 61 % 96 % 1004,2 hPa 0,0 l/m 3,2 km/h (1 Bft) O-NO 67 0 min 0,000 mm 0,0 UV-I 0 W/m 1,9 C 2,5 C 4,8 km/h (1 Bft) 91,30 %
15.11.2019 00:15 22,1 C 2,4 C 0,0 C 6,1 C 61 % 96 % 1004,2 hPa 0,0 l/m 0,0 km/h (0 Bft) O 90 0 min 0,000 mm 0,0 UV-I 0 W/m 1,8 C 2,4 C 1,6 km/h (1 Bft) 100,00 %
15.11.2019 00:14 22,1 C 2,4 C 0,6 C 6,1 C 62 % 96 % 1004,1 hPa 0,0 l/m 1,6 km/h (1 Bft) O 90 0 min 0,000 mm 0,0 UV-I 0 W/m 1,8 C 2,4 C 4,8 km/h (1 Bft) 95,65 %
15.11.2019 00:13 22,1 C 2,4 C 0,6 C 6,1 C 61 % 96 % 1004,1 hPa 0,0 l/m 3,2 km/h (1 Bft) O 90 0 min 0,000 mm 0,0 UV-I 0 W/m 1,8 C 2,4 C 4,8 km/h (1 Bft) 95,65 %
15.11.2019 00:12 22,1 C 2,4 C 0,6 C 6,1 C 61 % 96 % 1004,1 hPa 0,0 l/m 4,8 km/h (1 Bft) O 90 0 min 0,000 mm 0,0 UV-I 0 W/m 1,8 C 2,4 C 8,0 km/h (2 Bft) 95,65 %
15.11.2019 00:11 22,1 C 2,4 C 0,6 C 6,1 C 61 % 96 % 1004,1 hPa 0,0 l/m 4,8 km/h (1 Bft) O 90 0 min 0,000 mm 0,0 UV-I 0 W/m 1,8 C 2,4 C 8,0 km/h (2 Bft) 91,30 %
15.11.2019 00:10 22,1 C 2,3 C 0,6 C 6,1 C 61 % 96 % 1004,1 hPa 0,0 l/m 3,2 km/h (1 Bft) O 90 0 min 0,000 mm 0,0 UV-I 0 W/m 1,7 C 2,3 C 4,8 km/h (1 Bft) 91,30 %
15.11.2019 00:09 22,1 C 2,3 C 0,6 C 6,1 C 61 % 96 % 1004,1 hPa 0,0 l/m 4,8 km/h (1 Bft) O 90 0 min 0,000 mm 0,0 UV-I 0 W/m 1,7 C 2,3 C 6,4 km/h (2 Bft) 100,00 %
15.11.2019 00:08 22,1 C 2,3 C 0,6 C 6,1 C 61 % 96 % 1004,1 hPa 0,0 l/m 3,2 km/h (1 Bft) O 90 0 min 0,000 mm 0,0 UV-I 0 W/m 1,7 C 2,3 C 4,8 km/h (1 Bft) 95,65 %
15.11.2019 00:07 22,2 C 2,2 C 1,1 C 6,1 C 61 % 96 % 1004,1 hPa 0,0 l/m 3,2 km/h (1 Bft) O 90 0 min 0,000 mm 0,0 UV-I 0 W/m 1,6 C 2,2 C 4,8 km/h (1 Bft) 95,65 %
15.11.2019 00:06 22,2 C 2,2 C 0,6 C 6,1 C 61 % 96 % 1004,1 hPa 0,0 l/m 4,8 km/h (1 Bft) O 90 0 min 0,000 mm 0,0 UV-I 0 W/m 1,6 C 2,2 C 11,3 km/h (2 Bft) 100,00 %
15.11.2019 00:05 22,2 C 2,2 C 0,6 C 6,1 C 61 % 96 % 1004,1 hPa 0,0 l/m 4,8 km/h (1 Bft) O-NO 67 0 min 0,000 mm 0,0 UV-I 0 W/m 1,6 C 2,2 C 8,0 km/h (2 Bft) 95,65 %
15.11.2019 00:04 22,2 C 2,1 C 0,6 C 6,1 C 61 % 96 % 1004,1 hPa 0,0 l/m 3,2 km/h (1 Bft) O-NO 67 0 min 0,000 mm 0,0 UV-I 0 W/m 1,5 C 2,1 C 6,4 km/h (2 Bft) 95,65 %
15.11.2019 00:03 22,2 C 2,1 C 0,6 C 6,7 C 61 % 96 % 1004,1 hPa 0,0 l/m 3,2 km/h (1 Bft) O-NO 67 0 min 0,000 mm 0,0 UV-I 0 W/m 1,5 C 2,1 C 6,4 km/h (2 Bft) 95,65 %
15.11.2019 00:02 22,2 C 2,1 C 0,6 C 6,7 C 61 % 96 % 1004,1 hPa 0,0 l/m 3,2 km/h (1 Bft) O-NO 67 0 min 0,000 mm 0,0 UV-I 0 W/m 1,5 C 2,1 C 4,8 km/h (1 Bft) 95,65 %
15.11.2019 00:01 22,2 C 2,1 C 0,6 C 6,7 C 61 % 96 % 1004,1 hPa 0,0 l/m 4,8 km/h (1 Bft) O-NO 67 0 min 0,000 mm 0,0 UV-I 0 W/m 1,5 C 2,1 C 6,4 km/h (2 Bft) 86,96 %
15.11.2019 00:00 22,2 C 2,1 C 0,6 C 6,7 C 61 % 96 % 1004,1 hPa 0,0 l/m 4,8 km/h (1 Bft) O-NO 67 0 min 0,000 mm 0,0 UV-I 0 W/m 1,5 C 2,1 C 6,4 km/h (2 Bft) 95,65 %
_ Min-Zeit 03:31 00:00 01:05 00:04 00:00 05:05 05:15 - 00:15 - - - - - - 00:00 04:54 00:55 00:38
Minimum _ 21,8 C 2,1 C -0,6 C 6,1 C 61 % 83 % 1001,4 hPa - 0,0 km/h (0 Bft) - - - - - - 1,5 C 0,4 C 0,0 km/h (0 Bft) 82,61 %
_ Max-Zeit 00:00 04:59 04:52 00:00 00:14 00:31 00:15 00:00 04:54 - - 00:00 05:00 00:00 00:00 04:02 05:01 04:54 00:06
Maximum _ 22,2 C 6,7 C 6,1 C 6,7 C 62 % 97 % 1004,2 hPa 0,0 l/m 16,1 km/h
O-NO (3 Bft)
- - 0 min 0,025 mm 0,0 UV-I 0 W/m 4,3 C 6,7 C 27,4 km/h
O-SO (4 Bft)
100,00 %
Durchschnitt _ 21,9 C 4,0 C 2,3 C 6,1 C 61 % 93 % 1003,0 hPa #0,0 l/m 5,3 km/h (1 Bft) O-NO - #0 min. #0,025 mm 0,0 UV-I 0 W/m 2,9 C 3,4 C 9,0 km/h (2 Bft) 93,78 %